GFSSE_con_sbcape_000.txt.gz
CAPE
592 725 849 1077 1143 1067 986 1039 1112 1062 1021 985 1015 855 773 794 877 1063 1258 1363 1359 1263 1161 1290 1278 1455 1764 1863 1786 1722 1945 2177 1988 1558 1753 1732 1195 1059 1418 1793 1178 900 1180
653 690 843 1064 1214 1283 1166 1130 1165 1148 1148 1001 1118 908 889 861 753 707 900 1058 1186 963 947 1007 1224 1199 1193 1161 1259 1439 1626 1825 1712 1585 1363 1403 1106 967 1139 1211 821 812 1179
717 742 839 1055 1349 1444 1470 1412 1370 1396 1288 1066 1014 971 917 795 626 658 822 1004 822 699 546 518 544 523 685 874 1026 1221 1356 1577 1561 1484 1468 888 774 1187 935 876 907 1222 1457
747 759 825 1165 1369 1477 1485 1530 1487 1465 1308 1206 1131 1024 880 667 608 636 599 815 446 325 303 343 462 480 503 632 729 825 962 1189 1294 1385 698 846 1190 1018 338 924 1259 1166 1397
851 886 1024 1176 1324 1462 1501 1558 1599 1645 1603 1481 1154 874 747 593 549 391 316 190 113 109 89 77 86 125 264 377 491 651 751 845 950 627 350 690 426 160 602 1046 1049 1454 1585
1175 1016 1086 1324 1405 1497 1546 1472 1476 1426 1358 1152 975 830 660 517 343 203 109 42 20 11 16 8 0 0 19 70 125 168 244 383 616 109 307 717 436 902 1002 1021 1401 1276 1504
995 1291 1301 1360 1468 1523 1564 1472 1338 1304 1227 1175 1195 892 538 375 231 127 64 15 0 0 0 0 0 0 0 0 11 41 119 132 34 0 112 535 368 716 775 1094 775 1339 1359
919 1239 1527 1489 1511 1524 1434 1212 1087 1056 1123 1184 1116 865 512 341 234 119 38 2 0 0 0 0 0 0 0 0 0 47 38 58 1 0 124 382 509 1035 644 749 1380 1361 1184
1159 1208 1134 1143 1117 1025 951 856 876 985 972 1007 1013 847 669 436 397 153 20 0 0 0 0 0 0 0 0 0 0 0 0 9 0 0 33 343 495 1345 1093 816 1114 1505 1581
791 743 621 631 575 581 649 714 695 648 615 676 748 598 423 311 268 257 159 46 37 0 0 0 0 0 0 0 0 0 0 0 0 0 0 131 1344 1498 1303 1308 1592 1691 1709
402 300 248 269 254 326 391 514 646 617 486 439 515 493 332 216 72 46 145 35 207 88 63 84 80 25 0 0 0 0 0 0 0 0 0 109 792 657 694 793 1004 1197 1289
213 176 45 36 42 118 330 407 219 327 251 244 302 293 270 274 223 77 112 262 268 202 245 273 230 155 68 0 0 0 0 0 0 0 0 44 359 346 83 119 543 840 839
113 242 69 152 41 0 68 21 49 187 181 248 340 314 245 324 59 274 37 52 84 74 92 106 69 29 2 0 0 0 0 0 0 0 0 51 163 69 56 17 1 284 570
145 21 0 31 54 0 0 2 32 94 194 339 327 121 19 10 0 0 3 34 0 0 25 42 39 16 0 0 0 0 0 0 0 0 0 15 104 77 32 0 0 83 132
127 59 0 0 0 0 0 0 0 11 147 260 206 81 0 6 0 0 0 0 0 0 0 0 0 0 0 0 0 0 0 0 0 0 0 0 68 81 45 0 0 0 6
260 95 144 203 150 5 2 0 0 0 0 34 56 12 3 0 0 0 0 0 0 0 0 0 0 0 0 0 0 0 0 0 0 0 0 0 24 67 99 4 0 0 0
324 242 527 602 106 56 1 27 3 0 0 0 0 0 0 0 0 0 0 0 0 0 0 0 0 0 0 0 0 0 0 0 0 0 0 0 0 15 17 73 137 94 37
272 416 573 166 391 29 13 0 0 0 0 0 0 0 0 0 0 0 0 0 0 0 0 0 0 0 0 0 0 0 0 0 0 0 0 0 0 0 0 11 59 118 153
346 480 245 104 260 75 0 0 0 0 0 0 0 0 0 0 0 0 0 0 0 0 0 0 0 0 0 0 0 0 0 0 0 0 0 0 0 0 0 0 1 37 107
8 2 6 14 29 0 0 0 0 0 0 0 0 0 0 0 0 0 0 0 0 0 0 0 0 0 0 0 0 0 0 0 0 0 0 0 0 0 0 0 0 0 18
0 0 0 0 0 0 0 0 0 0 0 0 0 0 0 0 0 0 0 0 0 0 0 0 0 0 0 0 0 0 0 0 0 0 0 0 0 0 0 0 0 0 0
0 0 0 0 0 0 0 0 0 0 0 0 0 0 0 0 0 0 0 0 0 0 0 0 0 0 0 0 0 0 0 0 0 0 0 0 0 0 0 0 0 0 0
0 0 0 0 0 0 0 0 0 0 0 0 0 0 0 0 0 0 0 0 0 0 0 0 0 0 0 0 0 0 0 0 0 0 0 0 0 0 0 0 0 0 0
0 0 0 0 0 0 0 0 0 0 0 0 0 0 0 0 0 0 0 0 0 0 0 0 0 0 0 0 0 0 0 0 0 1 0 0 0 0 0 0 0 0 0
0 0 0 0 0 0 0 0 0 0 0 0 0 0 0 0 0 0 0 0 0 0 0 0 0 0 0 0 0 0 0 0 6 0 0 0 0 0 0 0 0 0 0
0 0 0 0 0 0 0 0 0 0 0 0 0 0 0 0 0 0 0 0 0 0 0 0 0 0 0 0 0 0 0 15 6 11 5 0 0 0 0 0 0 0 0

GFSSE_con_sbcape_003.txt.gz
CAPE
617 689 774 1044 1097 1125 1073 944 862 848 887 748 681 638 659 649 688 814 1013 1158 1153 840 831 855 774 792 863 979 1202 1357 1523 1633 1656 1519 1373 1501 1166 932 1356 1607 828 902 1160
645 707 964 1089 1128 1197 1160 1086 1021 1018 1025 749 751 748 727 661 635 676 735 724 619 412 341 445 516 607 618 665 843 985 1208 1473 1379 1442 1304 1158 1170 1296 990 1501 1140 963 1196
664 773 952 1154 1217 1240 1301 1262 1259 1198 869 819 820 811 742 627 595 634 625 489 260 162 125 139 159 182 175 258 497 827 980 1093 1303 1377 1391 660 608 1402 1118 1410 1151 1249 1396
707 759 1015 1248 1368 1390 1348 1377 1363 1185 996 940 909 888 705 596 547 466 415 389 182 138 67 48 39 46 75 159 329 543 611 704 845 1067 397 441 599 1504 869 492 1167 964 1259
694 811 1217 1267 1404 1498 1502 1505 1420 1430 1377 1188 1044 819 642 553 400 250 166 97 53 24 14 7 0 1 2 16 34 61 118 237 497 174 75 162 386 586 939 705 1062 1223 1471
791 919 1032 1252 1424 1550 1589 1551 1488 1449 1199 1026 993 693 600 446 272 118 67 15 0 0 0 0 0 0 0 0 0 0 1 10 171 0 2 244 777 716 1315 1489 1470 1328 1366
975 1076 1090 1267 1365 1440 1496 1474 1390 1200 955 998 945 702 541 394 243 100 23 0 0 0 0 0 0 0 0 0 0 0 6 29 0 0 0 11 296 899 1248 1124 1188 1138 1156
1209 1437 1256 1307 1251 1302 1349 1183 1088 1042 1071 1108 996 694 498 365 248 125 18 0 0 0 0 0 0 0 0 0 0 0 0 1 0 0 0 244 485 1157 1480 862 1263 1424 1366
959 1058 1317 1296 1344 1235 1039 889 819 821 913 960 906 797 638 474 348 152 19 0 0 0 0 0 0 0 0 0 0 0 0 8 0 0 0 6 699 1244 1262 1266 1260 1319 1261
918 841 707 842 779 695 675 689 656 690 688 782 790 612 393 263 286 227 138 73 74 15 25 44 23 1 0 0 0 0 0 0 0 0 0 0 676 1014 667 906 1155 1393 1520
587 489 448 463 421 336 331 480 632 641 548 567 566 471 287 119 56 96 192 167 231 173 133 186 171 146 69 33 5 0 0 0 0 0 0 0 576 764 536 443 746 953 1025
386 281 178 198 160 141 379 343 183 244 190 179 211 194 193 190 133 174 120 283 427 375 395 403 400 310 269 11 0 0 0 0 0 0 0 0 176 272 405 128 329 119 498
127 162 50 23 31 68 140 84 24 79 62 73 188 147 170 221 146 104 97 18 41 134 88 117 97 70 34 8 0 0 0 0 0 0 0 0 58 240 162 46 55 0 74
99 99 35 0 0 0 0 0 0 23 77 131 250 284 75 30 5 0 0 0 0 0 0 0 0 11 14 0 0 0 0 0 0 0 0 0 36 136 48 2 0 0 95
170 113 76 62 0 0 0 0 1 39 202 300 188 119 2 0 0 0 0 0 0 0 0 0 0 0 0 0 0 0 0 0 0 0 0 0 0 93 59 54 38 8 8
200 83 0 88 4 0 0 0 0 1 94 199 131 5 0 0 0 0 0 0 0 0 0 0 0 0 0 0 0 0 0 0 0 0 0 0 0 19 154 109 85 72 53
63 62 9 1 0 0 0 0 0 0 0 6 0 0 0 0 0 0 0 0 0 0 0 0 0 0 0 0 0 0 0 0 0 0 0 0 0 0 10 103 264 352 299
16 178 346 305 1 0 0 0 0 0 0 0 0 0 0 0 0 0 0 0 0 0 0 0 0 0 0 0 0 0 0 0 0 0 0 0 0 0 0 0 22 48 221
7 250 190 257 231 54 0 0 0 0 0 0 0 0 0 0 0 0 0 0 0 0 0 0 0 0 0 0 0 0 0 0 0 0 0 0 0 0 0 0 0 0 0
0 0 0 0 0 0 0 0 0 0 0 0 0 0 0 0 0 0 0 0 0 0 0 0 0 0 0 0 0 0 0 0 0 0 0 0 0 0 0 0 0 0 0
0 0 0 0 0 0 0 0 0 0 0 0 0 0 0 0 0 0 0 0 0 0 0 0 0 0 0 0 0 0 0 0 0 0 0 0 0 0 0 0 0 0 0
0 0 0 0 0 0 0 0 0 0 0 0 0 0 0 0 0 0 0 0 0 0 0 0 0 0 0 0 0 0 0 0 0 0 0 0 0 0 0 0 0 0 0
0 0 0 0 0 0 0 0 0 0 0 0 0 0 0 0 0 0 0 0 0 0 0 0 0 0 0 0 0 0 3 0 0 0 0 0 0 0 0 0 0 0 0
0 0 0 0 0 0 0 0 0 0 0 0 0 0 0 0 0 0 0 0 0 0 0 0 0 0 0 0 0 0 0 0 8 1 0 0 0 0 0 0 0 0 0
0 0 0 0 0 0 0 0 0 0 0 0 0 0 0 0 0 0 0 0 0 0 0 0 0 0 0 0 0 0 0 0 0 6 4 0 0 0 0 0 0 0 0
0 0 0 0 0 0 0 0 0 0 0 0 0 0 0 0 0 0 0 0 0 0 0 0 0 0 0 0 0 0 2 17 19 28 26 1 4 0 0 0 0 0 0

GFSSE_con_sbcape_006.txt.gz
CAPE
402 515 763 1138 1151 1015 862 733 710 775 817 758 704 616 582 557 591 634 725 891 773 480 433 452 464 505 514 530 643 783 976 1007 1195 1236 1431 1023 868 1024 1208 1444 1293 884 1335
532 634 880 1070 1170 1095 974 836 872 924 883 685 698 670 593 509 514 567 500 374 337 125 107 133 146 166 248 325 519 658 745 814 1000 960 1031 1030 862 991 1087 1334 1039 1236 1488
692 819 822 969 1174 1181 1071 1010 1142 1041 779 749 761 717 545 457 419 357 289 319 154 49 34 24 36 60 88 141 232 313 361 433 443 646 706 101 169 826 1314 1244 1349 1361 1317
793 832 881 964 1070 1259 1158 1194 1165 1011 837 821 825 676 516 424 280 151 149 239 33 14 9 3 0 0 0 1 13 14 18 23 87 158 0 14 91 668 1270 1148 1055 1001 1065
713 827 1028 1089 1172 1278 1289 1285 1206 1219 1140 1025 879 618 506 356 191 57 43 22 0 0 0 0 0 0 0 0 0 0 0 0 9 0 0 0 300 576 1050 1193 1143 1090 1311
627 725 899 1148 1168 1327 1341 1392 1372 1277 1126 1047 895 584 462 272 127 22 5 0 0 0 0 0 0 0 0 0 0 0 0 0 0 0 0 0 30 753 1270 1382 1442 1043 1244
730 770 938 1154 1255 1368 1490 1451 1346 1115 916 956 866 653 433 277 127 10 0 0 0 0 0 0 0 0 0 0 0 0 0 0 0 0 0 0 22 1017 1266 1063 1243 845 1049
942 1073 1017 1147 1162 1204 1301 1252 1084 926 888 948 833 631 412 302 150 0 0 0 0 0 0 0 0 0 0 0 0 0 0 0 0 0 0 0 119 946 752 669 1360 819 731
1003 1200 1029 1032 1019 1051 1025 952 901 866 898 886 815 662 535 340 153 12 0 0 0 0 6 29 84 48 10 9 20 16 0 0 0 0 0 0 208 728 705 462 828 1128 1099
726 754 727 823 990 812 753 794 734 688 720 766 752 597 347 210 140 84 65 10 101 56 89 176 163 165 128 86 54 47 8 0 0 0 0 0 142 384 550 404 424 460 449
812 769 746 705 677 518 408 541 658 715 658 642 640 507 269 9 0 12 76 190 186 189 194 238 305 269 193 73 25 43 11 0 0 0 0 0 0 19 84 340 500 353 237
648 541 432 386 363 228 408 358 279 299 289 275 314 234 95 37 24 98 85 168 295 335 432 421 426 415 226 0 0 0 0 0 0 0 0 0 0 0 19 95 396 252 177
595 476 231 151 72 110 259 84 6 44 41 54 91 60 76 130 60 39 19 0 0 22 2 2 2 0 0 0 0 0 0 0 0 0 0 0 0 0 1 0 124 152 114
210 261 164 19 6 0 0 0 0 14 14 47 126 148 99 43 4 0 0 0 0 0 0 0 0 0 0 0 0 0 0 0 0 0 0 0 0 0 0 0 0 190 170
81 63 21 0 0 0 0 0 0 13 71 101 150 109 0 0 0 0 0 0 0 0 0 0 0 0 0 0 0 0 0 0 0 0 0 0 0 0 0 0 0 1 199
66 52 7 2 0 0 0 0 0 0 24 126 54 1 0 0 0 0 0 0 0 0 0 0 0 0 0 0 0 0 0 0 0 0 0 0 0 0 0 0 0 0 11
4 0 0 0 0 0 0 0 0 0 0 0 0 0 0 0 0 0 0 0 0 0 0 0 0 0 0 0 0 0 0 0 0 0 0 0 0 0 0 0 0 0 0
0 10 111 23 13 0 0 0 0 0 0 0 0 0 0 0 0 0 0 0 0 0 0 0 0 0 0 0 0 0 0 0 0 0 0 0 0 0 0 0 0 0 0
68 169 96 28 1 0 0 0 0 0 0 0 0 0 0 0 0 0 0 0 0 0 0 0 0 0 0 0 0 0 0 0 0 0 0 0 0 0 0 0 0 0 0
0 0 0 0 0 0 0 0 0 0 0 0 0 0 0 0 0 0 0 0 0 0 0 0 0 0 0 0 0 0 0 0 0 0 0 0 0 0 0 0 0 0 0
0 0 0 0 0 0 0 0 0 0 0 0 0 0 0 0 0 0 0 0 0 0 0 0 0 0 0 0 0 0 0 0 0 0 0 0 0 0 0 0 0 0 0
0 0 0 0 0 0 0 0 0 0 0 0 0 0 0 0 0 0 0 0 0 0 0 0 0 0 0 0 0 0 0 0 0 0 0 0 0 0 0 0 0 0 0
0 0 0 0 0 0 0 0 0 0 0 0 0 0 0 0 0 0 0 0 0 0 0 0 0 0 0 0 0 0 0 0 0 0 0 0 0 0 0 0 0 0 0
0 0 0 0 0 0 0 0 0 0 0 0 0 0 0 0 0 0 0 0 0 0 0 0 0 0 0 0 0 0 0 0 1 4 0 0 0 0 0 0 0 0 0
0 0 0 0 0 0 0 0 0 0 0 0 0 0 0 0 0 0 0 0 0 0 0 0 0 0 0 0 0 0 0 0 0 5 0 0 0 0 0 0 0 0 0
0 0 0 0 0 0 0 0 0 0 0 0 0 0 0 0 0 0 0 0 0 0 0 0 0 0 0 0 0 0 0 0 0 6 1 0 0 0 0 0 0 0 0

GFSSE_con_sbcape_009.txt.gz
CAPE
589 705 694 676 787 825 730 674 676 699 782 818 735 551 504 506 510 542 564 634 445 120 101 91 122 166 257 324 382 416 457 503 558 688 831 995 829 848 999 906 959 334 1182
807 818 702 835 816 883 798 760 783 881 887 690 591 534 462 445 498 389 249 386 280 31 17 31 42 47 62 81 114 128 158 197 246 383 379 261 320 730 1077 995 1342 672 1104
1007 1014 819 677 898 948 925 1014 1058 1045 749 679 657 525 412 379 297 204 160 355 161 15 3 0 0 0 0 0 0 0 0 0 39 59 105 224 318 685 1027 1411 1250 1205 913
1100 1065 780 712 982 1055 1070 1188 1139 1037 785 776 682 489 396 259 137 127 116 226 30 0 0 0 0 0 0 0 0 0 0 0 0 0 0 52 435 739 1102 1117 937 809 824
1198 1070 837 834 992 1191 1281 1252 1200 1138 1097 1039 731 480 359 201 41 40 22 73 0 0 0 0 0 0 0 0 0 0 0 0 0 0 0 134 718 708 1080 831 824 753 892
1058 925 735 823 1054 1337 1402 1378 1309 1195 1118 1023 811 524 342 161 40 0 0 0 0 0 0 0 0 0 0 0 0 0 0 0 0 0 0 30 567 1108 1002 1237 1062 695 1018
1075 1088 1032 956 983 1316 1529 1539 1307 1129 988 955 830 669 358 191 36 0 0 0 0 0 0 0 0 0 0 0 0 0 0 0 0 0 0 0 200 841 636 569 869 995 727
1124 1231 1308 1031 1020 1339 1463 1308 1019 888 887 841 784 602 353 222 49 0 0 0 0 0 1 0 0 0 0 0 0 0 0 0 0 0 0 0 119 493 733 562 912 1066 743
1236 1236 1401 1462 1372 1120 1060 982 878 778 823 776 709 588 391 221 88 38 35 46 14 11 124 114 62 83 28 65 48 19 0 0 0 0 0 0 2 125 325 441 607 410 298
1420 1324 1521 1470 1323 1252 1193 910 838 743 706 689 594 452 206 146 70 112 39 50 157 175 161 184 250 242 182 103 54 39 7 0 0 0 0 0 0 0 0 84 346 97 12
1062 1155 1028 870 848 1133 1236 1000 758 686 634 605 506 372 159 153 177 162 101 134 274 200 292 380 363 322 249 64 1 23 0 0 0 0 0 0 0 0 0 14 449 473 79
1096 854 837 780 768 875 860 835 734 559 428 420 395 494 415 410 387 292 259 125 131 148 293 213 199 213 133 133 69 0 0 0 0 0 0 0 0 0 0 113 280 300 264
869 725 696 708 690 981 748 611 485 385 315 327 436 445 562 535 673 619 481 311 258 38 32 2 22 64 87 23 0 0 0 0 0 0 0 0 0 0 0 0 90 275 326
830 858 925 893 731 538 405 367 170 177 208 343 488 631 707 705 553 177 108 2 0 0 0 0 0 0 0 0 0 0 0 0 0 0 0 0 0 0 0 6 10 2 121
554 683 692 398 317 212 122 56 34 102 213 396 598 622 670 433 189 28 3 0 0 0 0 0 0 0 0 0 0 0 0 0 0 0 0 0 0 0 0 0 2 3 0
365 535 364 163 36 12 8 54 99 73 29 40 61 0 8 37 56 4 0 0 0 0 0 0 0 0 0 0 0 0 0 0 0 0 0 0 0 0 0 0 0 0 0
253 322 267 31 9 13 25 35 2 9 0 0 0 0 0 0 0 0 0 0 0 0 0 0 0 0 0 0 0 0 0 0 0 0 0 0 0 0 0 0 0 0 0
151 341 308 132 87 51 40 1 0 0 0 0 0 0 0 0 0 0 0 0 0 0 0 0 0 0 0 0 0 0 0 0 0 0 0 0 0 0 0 0 0 0 0
441 470 437 401 136 5 1 0 0 0 0 0 0 0 0 0 0 0 0 0 0 0 0 0 0 0 0 0 0 0 0 0 0 0 0 0 0 0 0 0 0 0 0
242 170 63 46 12 2 0 0 0 0 0 0 0 0 0 0 0 0 0 0 0 0 0 0 0 0 0 0 0 0 0 0 0 0 0 0 0 0 0 0 0 0 0
5 1 0 0 0 0 0 0 0 0 0 0 0 0 0 0 0 0 0 0 0 0 0 0 0 0 0 0 0 0 0 0 0 0 0 0 0 0 0 0 0 0 0
5 0 0 0 0 0 0 0 0 0 0 0 0 0 0 0 0 0 0 0 0 0 0 0 0 0 0 0 0 0 0 0 0 0 0 0 0 0 0 0 0 0 0
0 0 0 0 0 0 0 0 0 0 0 0 0 0 0 0 0 0 0 0 0 0 0 0 0 0 0 0 0 0 0 0 6 0 0 0 1 0 0 0 0 0 1
0 0 0 0 0 0 0 0 0 0 0 0 0 0 0 0 0 0 0 0 0 0 0 0 0 0 0 0 0 1 1 13 1 1 0 0 0 0 0 6 0 0 0
0 0 0 0 0 0 0 0 0 0 0 0 0 0 0 0 0 0 0 0 0 0 0 0 0 0 0 0 0 0 0 0 2 5 0 0 0 0 2 1 4 0 0
0 0 0 0 0 0 0 0 0 0 0 0 0 0 0 0 0 0 0 0 0 0 0 0 0 0 0 0 0 0 0 0 0 8 6 0 0 0 0 0 2 0 0

GFSSE_con_sbcape_012.txt.gz
CAPE
755 630 797 909 953 897 784 752 735 772 850 875 787 528 467 436 436 313 312 357 301 54 46 80 104 109 112 121 107 93 106 111 229 254 283 322 401 790 764 566 1020 415 770
848 662 631 860 910 872 844 842 884 925 964 715 591 512 428 395 249 153 235 243 138 15 5 1 0 0 0 0 0 0 0 1 3 63 153 296 810 865 866 910 1289 525 703
1028 863 538 784 921 913 944 1051 1076 1094 822 689 555 422 323 226 134 147 108 194 11 0 0 0 0 0 0 0 0 0 0 0 0 0 35 41 448 980 907 919 1228 800 657
1060 951 736 705 943 1026 1155 1181 1198 1071 847 736 514 368 231 137 103 74 10 115 2 0 0 0 0 0 0 0 0 0 0 0 0 0 0 0 190 845 538 517 521 630 702
1218 936 1028 791 811 968 1105 1063 1254 1241 1178 855 607 345 219 69 43 11 0 0 0 0 0 0 0 0 0 0 0 0 0 0 0 0 0 28 178 852 708 525 590 562 514
1067 1190 647 683 774 949 1104 1175 1423 1308 1104 910 760 405 217 80 2 0 0 0 0 0 0 0 0 0 0 0 0 0 0 0 0 0 0 4 127 720 631 465 404 417 475
1154 1332 969 735 666 995 1241 1540 1399 1199 1024 906 761 478 258 41 0 0 0 0 0 0 0 0 0 0 0 0 0 0 0 0 0 0 0 0 1 316 644 454 506 311 355
1135 1219 1139 691 835 983 1403 1368 1059 954 958 909 671 444 248 39 1 0 0 0 0 0 0 0 0 1 0 0 0 0 0 0 0 0 0 0 16 97 233 444 499 237 168
1408 1500 1262 1083 830 1093 1146 933 791 819 835 770 664 501 249 98 69 52 47 34 3 1 26 49 48 92 92 66 27 0 0 0 0 0 0 0 0 0 0 37 290 80 14
1456 1389 1348 1196 1321 1287 1269 843 750 723 696 670 523 355 190 105 104 104 25 109 116 104 98 131 171 195 175 180 56 37 12 0 0 0 0 0 0 0 10 38 59 71 0
1355 1340 1341 1302 1244 1133 1017 1078 720 702 625 516 436 224 118 151 173 144 89 166 264 268 284 345 325 310 199 212 3 0 13 0 0 0 1 0 0 0 0 0 208 228 0
1336 1187 1217 1105 1030 1154 775 737 580 284 213 251 466 500 381 663 617 413 238 176 119 96 166 19 8 66 70 0 0 0 0 0 0 0 0 0 0 0 0 0 127 347 429
1080 976 1030 1015 999 1067 699 485 220 185 262 558 785 859 821 999 939 665 311 191 195 0 63 1 1 0 1 0 0 0 0 0 0 0 0 0 0 0 0 0 15 83 125
935 944 876 894 1069 822 482 194 225 282 471 699 931 1080 1034 963 965 565 276 170 176 80 22 0 0 0 0 0 0 0 0 0 0 0 0 0 0 0 0 0 0 7 13
525 748 932 866 749 684 388 316 404 621 852 984 1047 903 666 661 706 624 311 119 12 0 0 0 0 0 0 0 0 0 0 0 0 0 0 0 0 0 0 0 0 0 0
466 862 961 720 597 431 356 504 638 314 132 205 252 117 35 12 114 411 69 0 0 0 0 0 0 0 0 0 0 0 0 0 0 0 0 0 0 0 0 0 0 0 0
582 948 937 743 512 554 518 61 6 2 7 36 78 77 0 0 0 0 0 0 0 0 0 0 0 0 0 0 0 0 0 0 0 0 0 0 0 0 0 0 0 0 0
491 984 976 712 640 603 31 0 9 21 4 0 0 0 0 0 0 0 0 0 0 0 0 0 0 0 0 0 0 0 0 0 0 0 0 0 0 0 0 0 0 0 0
678 1153 1105 947 895 551 0 1 0 2 0 0 0 0 0 0 0 0 0 0 0 0 0 0 0 0 0 0 0 0 0 0 0 0 6 0 0 0 0 0 0 0 0
948 1154 1247 809 600 517 200 0 0 0 0 0 0 0 0 0 0 0 0 0 0 0 0 0 0 0 0 0 0 0 0 0 0 3 23 8 1 1 0 0 0 0 0
1028 1066 1157 829 704 581 196 17 0 0 0 0 0 0 0 0 0 0 0 0 0 0 0 0 0 0 0 0 0 0 0 0 7 22 21 18 11 7 3 0 0 0 0
1129 1077 911 767 624 381 66 0 4 8 0 0 0 0 0 0 0 0 0 0 0 0 0 0 0 0 0 11 30 6 0 0 0 14 23 12 18 26 4 0 0 0 0
630 575 270 62 4 0 0 0 0 0 0 0 0 0 0 0 0 0 0 0 0 0 0 1 0 1 6 5 15 20 7 0 0 0 10 8 13 4 3 0 5 0 0
0 0 0 0 0 0 0 0 0 0 0 0 0 0 0 0 0 0 0 0 0 0 0 3 1 0 0 0 4 4 3 1 7 3 4 14 0 0 0 0 5 0 0
0 0 0 0 0 0 0 0 0 0 0 0 0 0 0 0 0 0 0 0 0 0 1 1 0 0 2 6 3 0 2 1 1 8 7 6 3 2 3 3 4 9 2
0 0 0 0 0 0 0 0 0 0 0 0 0 0 0 0 0 0 0 0 6 7 10 2 0 2 1 0 0 1 2 3 3 9 13 8 3 0 9 10 14 11 6

GFSSE_con_sbcape_015.txt.gz
CAPE
584 268 803 903 917 839 742 676 675 725 845 769 647 490 413 330 220 340 385 325 253 41 23 5 0 0 0 0 0 0 0 0 0 69 162 342 616 804 796 763 1090 140 541
679 251 629 896 951 792 722 826 856 989 917 590 522 449 330 203 186 214 263 238 115 0 0 0 0 0 0 0 0 0 0 0 0 0 102 537 823 890 774 631 1093 516 507
787 422 312 858 958 917 886 1033 1143 1073 677 562 428 317 211 146 166 128 152 187 10 0 0 0 0 0 0 0 0 0 0 0 0 2 15 159 710 604 484 949 864 576 588
853 341 260 782 884 1065 1036 1079 1083 987 682 509 366 245 151 107 52 47 19 56 0 0 0 0 0 0 0 0 0 0 0 0 15 107 5 0 443 676 582 456 521 414 461
858 616 486 740 790 827 870 916 1112 1089 928 644 482 208 114 36 0 0 0 0 0 0 0 0 0 0 0 0 0 0 0 0 20 12 3 0 77 610 626 180 413 531 386
846 873 444 645 797 741 719 1031 1041 1186 873 756 554 204 56 0 0 0 0 0 0 0 0 0 0 0 0 0 0 0 0 0 0 0 0 0 1 436 616 324 166 119 400
557 587 572 544 638 616 722 929 1166 991 877 735 453 225 34 0 0 0 0 0 0 0 0 0 0 0 3 17 4 0 0 0 0 0 0 0 2 109 435 511 324 71 11
836 852 665 458 632 448 925 1039 982 903 812 700 447 222 15 3 0 0 6 5 0 13 22 20 33 56 54 54 50 23 14 2 0 0 0 0 49 33 0 121 245 84 0
335 913 1051 802 536 643 758 688 700 734 715 652 423 218 46 32 38 48 47 42 36 45 73 78 94 140 138 123 83 83 59 103 0 0 0 0 0 20 25 2 31 34 0
468 1275 1236 938 932 1093 975 633 636 638 630 554 318 126 71 78 36 42 51 125 157 148 203 341 348 308 269 293 107 41 70 90 0 1 12 0 0 0 0 0 33 39 30
1199 1144 1088 1007 870 904 924 772 638 664 590 452 355 102 53 177 158 87 87 157 276 204 197 240 133 148 232 315 297 38 88 0 0 1 10 0 0 3 12 0 0 106 82
1057 994 975 918 884 759 475 532 324 75 135 256 488 319 248 443 431 19 69 221 209 121 202 142 70 116 100 17 43 243 0 0 0 0 0 0 0 5 90 98 106 119 141
1173 996 1046 1366 1246 524 380 240 104 138 377 675 678 628 661 541 684 476 296 331 309 86 201 115 72 35 26 9 0 0 0 0 0 0 0 0 0 0 8 18 28 21 20
696 1066 955 945 1082 516 279 156 113 346 530 539 794 783 828 686 620 556 316 342 374 227 134 102 88 37 7 0 0 0 0 0 0 0 0 0 0 0 0 0 0 0 0
455 658 718 776 618 499 256 332 669 741 801 856 930 661 678 773 665 464 648 437 202 98 93 68 47 1 0 0 0 0 0 0 0 0 0 0 0 0 0 0 0 0 0
397 665 663 561 516 327 481 774 536 237 138 103 197 340 504 428 312 133 83 138 39 97 7 2 0 0 0 0 0 0 0 0 0 0 0 0 0 0 0 0 0 0 0
617 868 771 745 533 474 763 321 86 0 29 14 67 237 219 237 91 28 31 2 0 8 0 0 0 0 0 0 0 0 0 0 0 1 1 24 2 0 0 0 0 0 0
815 1360 1089 659 679 823 522 170 2 36 9 0 0 0 0 0 0 0 0 0 0 0 0 0 0 0 0 0 0 0 0 0 0 1 0 28 31 8 0 0 0 0 0
723 1370 1357 1061 1018 705 394 167 307 113 30 4 0 0 0 0 0 0 0 0 0 0 0 0 0 0 0 0 0 0 1 0 4 0 0 16 29 32 14 0 29 0 0
847 1513 1593 1317 1206 612 392 445 338 137 18 0 0 0 0 0 0 0 0 0 0 0 0 0 0 0 0 0 0 0 1 0 0 0 5 32 26 14 6 20 19 14 30
1320 1539 1001 969 897 794 810 583 73 9 1 0 0 0 0 0 0 0 0 0 0 0 0 0 2 0 0 0 0 1 1 2 12 0 5 23 24 19 29 20 13 3 4
1423 1408 1122 1060 936 913 481 65 21 49 30 0 0 0 0 0 0 0 0 0 0 0 0 0 1 0 0 0 0 4 1 0 0 0 0 1 31 3 13 3 2 5 7
1307 1269 1184 943 734 288 28 27 48 14 0 0 0 0 0 0 0 0 0 0 0 0 0 0 1 7 1 0 1 1 2 2 2 0 3 5 48 11 12 4 2 2 5
894 674 359 96 7 1 0 0 1 19 21 0 0 0 0 0 0 0 0 0 0 0 0 0 0 3 6 7 10 7 13 17 17 11 3 3 9 6 46 2 5 2 0
45 8 0 0 0 0 0 0 0 0 0 0 0 0 0 0 0 0 0 0 0 0 1 6 14 14 20 26 21 14 10 3 3 8 9 10 10 14 21 26 20 11 8
0 0 0 0 0 0 0 0 0 0 0 0 0 0 0 0 0 0 0 0 0 0 7 16 21 27 32 23 15 5 20 19 16 23 23 20 47 12 14 26 63 52 54

GFSSE_con_sbcape_021.txt.gz
CAPE
305 670 863 1063 931 752 663 654 720 721 708 578 412 343 286 197 223 228 173 109 33 0 0 0 0 0 0 0 0 0 0 0 0 20 441 346 357 266 289 405 534 325 466
322 607 722 872 841 769 825 845 830 771 634 422 400 301 297 217 179 180 108 62 3 0 0 0 0 0 0 0 0 0 0 21 33 33 148 290 237 282 356 325 711 662 823
348 563 590 680 775 899 1035 1061 890 754 413 293 264 283 176 67 0 51 81 41 3 0 0 0 0 0 0 0 0 0 7 39 42 36 30 86 79 135 153 548 496 312 353
286 291 439 735 778 1023 1001 936 728 490 322 309 231 142 154 0 0 17 156 98 39 0 0 0 0 0 0 0 14 50 90 46 204 91 3 0 86 251 142 0 1 100 300
187 345 578 611 696 961 950 842 620 479 365 288 197 131 23 4 30 41 158 102 23 0 0 0 0 0 0 61 71 89 86 83 0 0 0 41 77 173 221 78 0 0 47
344 442 261 313 432 796 965 825 639 432 321 235 155 133 26 41 56 80 185 135 0 0 0 0 0 0 99 97 130 157 108 116 0 0 0 60 45 77 68 62 0 0 46
264 174 114 194 320 672 951 790 577 417 324 212 165 157 147 76 37 116 269 178 27 29 16 21 35 150 176 137 191 199 74 98 0 0 0 0 23 72 41 49 39 0 0
33 34 128 414 198 684 689 560 424 371 305 179 211 203 202 263 289 305 331 335 227 206 233 202 174 108 164 212 224 144 85 78 0 0 0 0 315 54 57 60 315 398 111
0 1 116 212 446 462 374 341 308 334 270 178 196 223 215 224 289 359 364 358 315 240 176 146 85 46 105 159 162 142 127 120 0 0 0 0 273 74 34 52 85 423 550
7 0 23 285 222 289 204 231 192 181 149 113 125 115 97 173 260 298 277 292 197 68 23 24 22 50 71 66 124 159 181 9 0 0 0 90 363 191 197 174 162 223 281
0 1 1 224 246 234 121 151 165 222 132 68 61 37 21 0 1 71 52 138 79 0 0 19 45 40 61 5 179 133 108 0 0 0 0 165 319 179 208 182 154 90 84
0 7 101 224 338 215 129 70 56 106 32 0 0 0 0 0 0 0 23 102 45 27 25 38 86 114 74 0 0 21 0 0 0 0 0 97 106 39 49 21 0 0 0
78 182 284 379 462 227 87 15 15 3 13 115 90 62 101 119 31 37 15 23 18 20 2 26 3 0 0 0 0 0 0 0 0 0 0 0 6 0 0 0 0 0 0
243 356 490 569 440 122 177 25 17 188 284 397 162 138 140 36 0 0 0 0 0 0 0 0 0 0 0 0 0 0 0 0 0 0 0 4 23 0 1 0 0 0 0
588 538 469 505 67 15 110 247 213 174 96 18 62 37 7 8 4 0 0 0 0 0 0 0 0 0 0 0 0 0 0 0 0 0 0 14 35 23 7 9 4 0 0
473 498 492 365 42 246 148 27 0 0 0 0 8 2 9 2 0 0 0 0 0 0 0 0 0 0 0 0 0 0 0 0 0 0 0 0 40 44 12 2 0 0 0
425 416 364 70 226 204 0 0 0 0 0 0 0 0 0 0 0 0 0 0 0 0 0 0 0 0 0 0 0 0 0 0 0 0 0 0 1 16 6 0 0 0 0
220 253 214 223 300 60 0 0 0 0 0 0 0 0 0 0 0 0 0 0 0 0 0 0 0 0 0 0 0 0 0 0 0 0 0 0 0 0 13 4 0 0 0
217 252 182 220 239 14 0 0 0 0 0 0 0 0 0 0 0 0 0 0 0 0 0 0 0 0 0 0 0 0 0 0 0 0 0 0 0 0 0 54 36 0 0
238 242 218 300 65 12 0 2 10 0 0 0 0 0 0 0 0 0 0 0 0 0 0 0 0 0 0 0 0 0 0 0 0 0 0 0 0 0 0 0 0 0 0
385 305 409 188 68 17 0 23 13 0 0 0 0 0 0 0 0 0 0 0 0 0 0 0 0 0 0 0 0 0 0 0 0 0 0 0 0 0 0 0 0 0 0
643 413 384 319 188 93 25 103 0 0 0 0 0 0 0 0 0 0 0 0 0 0 0 0 0 0 0 0 0 0 0 0 0 0 0 0 0 0 0 0 0 0 0
588 465 317 224 232 185 149 0 0 0 0 0 0 0 0 0 0 0 0 0 0 0 0 0 0 0 0 0 0 0 0 0 0 0 0 0 0 0 0 0 0 0 0
462 287 354 296 283 368 14 0 0 0 0 0 0 0 0 0 0 0 0 0 0 0 0 0 0 0 0 0 0 0 0 0 0 0 0 0 0 0 0 0 0 0 0
602 442 308 323 97 0 0 0 0 0 0 0 0 0 0 0 0 0 0 0 0 0 0 0 0 0 0 0 0 0 0 0 0 0 0 0 0 0 0 0 0 0 0
251 58 0 0 0 0 0 0 0 0 0 0 0 0 0 0 0 0 0 0 0 0 0 0 0 0 0 0 0 0 0 0 0 0 0 0 0 0 0 0 0 0 0

GFSSE_con_sbcape_027.txt.gz
CAPE
652 816 801 780 732 768 708 502 348 304 280 257 173 86 48 9 9 17 31 11 0 0 0 0 0 0 0 0 0 0 0 94 408 479 334 52 42 79 125 191 116 72 268
684 824 730 753 807 868 762 525 402 336 289 142 112 99 87 49 65 65 62 22 26 0 0 0 0 0 0 0 35 31 0 41 488 342 66 45 2 0 0 4 138 77 235
849 855 664 680 815 849 753 591 493 370 121 39 50 80 45 58 16 119 95 92 91 15 0 0 0 0 0 32 452 488 161 179 385 401 59 0 0 0 0 0 0 1 202
915 678 486 700 805 852 671 530 387 208 92 70 45 47 51 58 35 146 178 159 155 74 0 0 0 0 0 16 163 176 292 266 128 2 0 0 0 0 0 0 0 0 0
677 467 498 739 787 789 536 371 298 281 208 165 136 62 62 103 48 86 229 229 197 33 18 12 0 0 42 53 51 54 60 31 22 0 0 0 0 0 0 0 0 0 0
462 453 597 740 757 675 538 467 366 260 172 152 220 277 210 134 74 166 263 235 130 36 30 11 7 73 169 70 74 35 0 0 0 0 0 0 0 0 0 0 0 0 0
377 339 560 601 645 618 539 425 308 257 202 232 316 319 339 311 199 341 265 271 226 76 31 27 123 193 172 121 36 56 0 0 0 0 0 0 8 8 2 1 122 131 111
175 247 419 507 392 391 405 350 264 232 235 316 333 338 383 369 343 332 323 334 287 241 188 147 69 106 166 144 7 24 0 0 0 0 0 0 281 16 19 101 118 103 121
13 27 132 60 246 305 214 191 192 230 254 326 314 324 327 317 307 327 327 309 225 134 106 84 80 97 284 162 3 0 0 0 0 0 0 0 274 57 130 106 64 37 31
19 6 8 19 56 158 152 203 196 173 200 274 291 247 232 259 316 296 252 222 96 20 61 97 74 109 42 149 0 0 0 0 0 0 0 44 114 50 80 37 0 0 0
3 2 46 54 200 153 114 161 152 174 175 213 193 145 77 23 7 4 37 37 5 0 19 90 22 7 0 1 0 0 0 0 0 0 0 62 14 21 0 0 0 0 0
21 18 61 86 144 132 110 87 29 44 36 26 15 6 0 0 0 6 18 10 3 37 8 10 0 0 0 0 0 0 0 0 0 0 0 19 14 18 19 7 0 0 0
0 0 18 180 177 90 53 23 9 0 0 0 0 0 0 0 0 0 0 0 0 0 0 0 0 0 0 0 0 0 0 0 0 0 0 10 20 26 23 21 0 0 0
0 0 0 41 139 56 3 0 0 0 10 8 0 0 0 0 0 0 0 0 0 0 0 0 0 0 0 0 0 0 0 0 0 0 0 0 9 5 45 35 22 5 0
0 0 0 58 154 33 0 0 0 83 4 0 0 0 0 0 0 0 0 0 0 0 0 0 0 0 0 0 0 0 0 0 0 0 0 0 0 21 21 60 36 6 0
10 9 20 182 176 0 0 0 8 0 0 0 0 0 0 0 0 0 0 0 0 0 0 0 0 0 0 0 0 0 0 0 0 0 0 0 0 19 40 48 16 0 2
94 190 232 272 27 0 0 0 0 0 0 0 0 0 0 0 0 0 0 0 0 0 0 0 0 0 0 0 0 0 0 0 0 0 0 0 0 2 31 1 0 0 2
304 330 275 224 0 0 0 0 0 0 0 0 0 0 0 0 0 0 0 0 0 0 0 0 0 0 0 0 0 0 0 0 0 0 0 0 0 0 0 3 6 4 2
357 338 80 36 0 0 0 0 0 0 0 0 0 0 0 0 0 0 0 0 0 0 0 0 0 0 0 0 0 0 0 0 0 0 0 0 0 0 0 0 0 0 0
259 247 41 0 0 0 0 0 0 0 0 0 0 0 0 0 0 0 0 0 0 0 0 0 0 0 0 0 0 0 0 0 0 0 0 0 0 0 0 0 0 0 0
173 126 64 0 0 0 0 0 0 0 0 0 0 0 0 0 0 0 0 0 0 0 0 0 0 0 0 0 0 0 0 0 0 0 0 0 0 0 0 0 0 0 0
143 106 72 0 0 0 0 0 0 0 0 0 0 0 0 0 0 0 0 0 0 0 0 0 0 0 0 0 0 0 0 0 0 0 0 0 0 0 0 0 0 0 0
108 101 122 38 3 0 0 0 0 0 0 0 0 0 0 0 0 0 0 0 0 0 0 0 0 0 0 0 0 0 0 0 0 0 0 0 0 0 0 0 0 0 0
119 118 132 55 14 0 0 0 0 0 0 0 0 0 0 0 0 0 0 0 0 0 0 0 0 0 0 0 0 0 0 0 0 0 0 0 0 0 0 0 0 0 0
122 115 50 49 30 15 0 0 0 0 0 0 0 0 0 0 0 0 0 0 0 0 0 0 0 0 0 0 0 0 0 0 0 0 0 0 0 0 0 0 0 0 0
112 47 5 46 9 0 0 0 0 0 0 0 0 0 0 0 0 0 0 0 0 0 0 0 0 0 0 0 0 0 0 0 0 0 0 0 0 0 0 0 0 0 0

GFSSE_con_sbcape_030.txt.gz
CAPE
762 852 816 817 739 592 424 352 318 327 292 230 145 54 54 27 30 50 10 10 23 21 0 0 0 0 20 13 0 53 249 339 369 289 163 0 1 1 4 89 94 75 237
834 816 762 824 760 585 488 387 317 262 226 191 121 75 70 48 100 53 57 58 65 39 0 0 27 125 203 120 0 5 286 419 287 108 3 0 0 0 0 0 15 94 195
901 789 736 797 768 612 516 439 362 300 215 109 83 91 115 101 141 144 146 120 132 94 5 5 68 141 273 351 286 286 331 391 250 84 0 0 0 0 0 0 0 0 5
891 746 680 829 778 626 517 444 331 253 249 169 138 109 135 153 139 245 202 161 174 167 0 0 0 0 21 275 453 530 360 112 0 0 0 0 0 0 0 0 0 0 0
865 561 598 780 746 662 514 383 308 291 228 200 166 115 109 103 148 176 255 219 278 211 3 4 0 4 33 94 130 242 142 3 0 0 0 0 0 0 0 0 0 0 1
737 479 717 606 681 580 526 474 423 312 222 201 218 232 235 223 133 304 280 284 329 242 12 16 0 18 122 90 52 25 0 0 0 0 0 0 0 0 1 2 2 3 1
603 594 513 577 565 619 667 546 408 294 263 345 350 328 356 363 369 415 350 365 337 255 182 71 145 87 57 122 32 37 0 0 0 0 0 0 1 6 8 37 45 8 9
115 249 353 539 385 440 527 400 301 307 406 412 420 421 464 461 418 416 405 380 324 234 204 229 290 200 39 96 31 0 0 0 0 0 0 0 182 24 10 11 33 29 14
1 11 15 158 187 303 294 286 274 316 399 439 428 433 425 379 347 355 351 320 270 215 231 200 241 254 39 18 23 0 0 0 0 0 0 0 83 15 46 14 19 32 23
2 6 4 6 46 130 180 237 243 301 325 363 389 289 243 274 323 285 253 260 193 241 247 209 150 217 17 0 0 0 0 0 0 0 0 20 52 26 16 13 7 7 1
5 8 16 11 121 161 177 220 231 304 271 263 244 207 70 35 19 0 43 51 53 58 155 59 1 0 0 0 0 0 0 0 0 0 0 36 41 40 16 0 0 7 3
8 6 24 6 41 81 186 52 34 84 47 32 33 9 0 0 0 0 14 38 61 15 0 0 0 0 0 0 0 0 0 0 0 0 0 37 26 40 38 16 10 0 0
2 2 1 6 8 79 72 15 9 2 0 0 0 0 0 0 0 0 0 0 0 0 0 0 0 0 0 0 0 0 0 0 0 0 0 1 38 39 40 37 27 12 0
6 0 0 32 100 111 25 0 0 0 0 0 0 0 0 0 0 0 0 0 0 0 0 0 0 0 0 0 0 0 0 0 0 0 0 0 6 38 44 51 36 20 3
0 0 0 3 114 19 0 0 0 0 0 0 0 0 0 0 0 0 0 0 0 0 0 0 0 0 0 0 0 0 0 0 0 0 0 0 0 22 25 77 31 16 11
0 0 0 10 180 5 0 0 0 0 0 0 0 0 0 0 0 0 0 0 0 0 0 0 0 0 0 0 0 0 0 0 0 0 0 0 0 32 39 51 27 15 14
0 0 0 71 149 0 0 0 0 0 0 0 0 0 0 0 0 0 0 0 0 0 0 0 0 0 0 0 0 0 0 0 0 0 0 0 0 0 0 0 0 0 16
8 59 116 206 48 0 0 0 0 0 0 0 0 0 0 0 0 0 0 0 0 0 0 0 0 0 0 0 0 0 0 0 0 0 0 0 0 0 0 1 0 0 0
79 187 232 183 0 0 0 0 0 0 0 0 0 0 0 0 0 0 0 0 0 0 0 0 0 0 0 0 0 0 0 0 0 0 0 0 0 0 0 0 0 0 0
200 218 131 20 0 0 0 0 0 0 0 0 0 0 0 0 0 0 0 0 0 0 0 0 0 0 0 0 0 0 0 0 0 0 0 0 0 0 0 0 0 0 0
204 183 82 0 0 0 0 0 0 0 0 0 0 0 0 0 0 0 0 0 0 0 0 0 0 0 0 0 0 0 0 0 0 0 0 0 0 0 0 0 0 0 0
252 194 60 9 0 0 0 0 0 0 0 0 0 0 0 0 0 0 0 0 0 0 0 0 0 0 0 0 0 0 0 0 0 0 0 0 0 0 0 0 0 0 0
204 116 38 0 0 0 0 0 0 0 0 0 0 0 0 0 0 0 0 0 0 0 0 0 0 0 0 0 0 0 0 0 0 0 0 0 0 0 0 0 0 0 0
136 54 39 0 0 0 0 0 0 0 0 0 0 0 0 0 0 0 0 0 0 0 0 0 0 0 0 0 0 0 0 0 0 0 0 0 0 0 0 0 0 0 0
14 7 17 17 0 0 0 0 0 0 0 0 0 0 0 0 0 0 0 0 0 0 0 0 0 0 0 0 0 0 0 0 0 0 0 0 0 0 0 0 0 0 0
5 0 6 18 10 0 0 0 0 0 0 0 0 0 0 0 0 0 0 0 0 0 0 0 0 0 0 0 0 0 0 0 0 0 0 0 0 0 0 0 0 0 0

GFSSE_con_sbcape_033.txt.gz
CAPE
686 504 834 904 766 663 581 536 485 439 386 316 213 130 64 47 71 29 22 54 117 121 17 41 64 29 9 284 199 6 92 138 247 148 10 0 0 0 3 76 194 122 241
784 564 767 856 771 719 613 500 432 373 349 287 202 126 129 89 61 88 123 142 180 157 118 234 243 172 68 283 301 262 80 194 98 0 0 0 0 0 0 0 68 93 145
892 615 734 766 744 700 643 557 443 390 348 285 213 176 148 139 179 178 180 186 258 306 262 309 333 267 165 313 569 371 121 68 61 0 0 0 0 0 0 0 0 0 2
878 664 531 749 688 662 578 463 421 399 304 243 244 237 194 279 300 246 207 234 223 299 168 245 406 402 378 567 582 332 97 0 0 0 0 0 0 0 0 0 0 0 0
966 745 605 788 654 646 560 467 353 318 276 252 249 299 303 373 377 332 272 258 263 279 53 34 81 214 328 394 345 221 3 0 0 0 0 0 3 15 14 6 3 3 1
1126 832 710 729 726 692 552 451 361 258 206 200 238 325 382 402 379 418 362 341 312 268 10 3 46 62 190 224 168 84 0 0 0 0 0 0 4 8 12 13 18 22 24
963 929 910 590 668 698 701 523 333 279 276 260 285 337 403 443 477 462 396 344 321 298 163 29 85 196 169 144 143 47 0 0 0 0 0 5 13 8 5 7 34 42 36
500 429 664 674 512 485 604 372 277 356 398 362 366 413 530 524 465 443 348 263 273 335 330 238 93 192 151 123 75 14 0 0 0 0 0 3 94 4 2 2 29 41 39
2 104 242 120 127 125 214 292 311 408 444 411 418 461 469 396 385 372 310 245 242 234 304 324 128 124 174 87 1 0 0 0 0 0 0 2 19 2 2 0 0 19 3
2 4 2 2 15 82 165 333 328 337 360 382 423 338 274 322 327 312 255 252 263 239 271 352 148 54 26 0 0 0 0 0 0 0 7 19 43 24 4 0 0 0 24
8 2 12 2 10 111 166 258 402 400 331 294 250 215 112 62 63 18 53 105 195 101 49 36 0 0 0 0 0 0 0 0 0 0 3 56 39 26 19 14 15 12 6
9 18 8 19 32 118 152 147 230 257 193 155 92 95 67 83 28 24 58 119 26 0 0 0 0 0 0 0 0 0 0 0 0 0 0 21 22 36 22 21 21 17 12
11 24 37 3 0 68 199 86 83 38 77 81 61 49 39 72 58 36 2 0 0 0 0 0 0 0 0 0 0 0 0 0 0 0 0 0 21 30 39 27 16 10 5
3 19 57 16 0 88 172 66 22 45 24 38 0 37 116 77 20 4 0 0 0 0 0 0 0 0 0 0 0 0 0 0 0 0 0 0 0 15 44 45 15 16 2
12 22 17 20 45 142 81 14 14 16 3 4 1 97 85 53 9 0 0 0 0 0 0 0 0 0 0 0 0 0 0 0 0 0 0 0 0 3 4 72 25 16 5
13 1 1 12 110 151 0 0 0 16 20 0 46 59 4 2 0 0 0 0 0 0 0 0 0 0 0 0 0 0 0 0 0 0 0 0 0 24 23 69 42 28 6
0 0 2 48 324 182 0 0 17 81 41 41 38 0 0 0 0 0 0 0 0 0 0 0 0 0 0 0 0 0 0 0 0 0 0 0 0 0 31 21 0 0 15
0 0 8 76 278 207 0 0 46 39 31 30 15 3 0 0 0 0 0 0 0 0 0 0 0 0 0 0 0 0 0 0 0 0 0 0 0 0 0 0 0 0 0
0 0 2 117 354 218 22 13 82 13 17 27 1 0 0 0 0 0 0 0 0 0 0 0 0 0 0 0 0 0 0 0 0 0 0 0 0 0 0 0 0 0 0
26 85 125 285 368 226 44 19 9 0 0 0 0 0 0 0 0 0 0 0 0 0 0 0 0 0 0 0 0 0 0 0 0 0 0 0 0 0 0 0 0 0 0
155 166 282 335 275 98 33 50 44 0 0 0 0 0 0 0 0 0 0 0 0 0 0 0 0 0 0 0 0 0 0 0 0 0 0 0 0 0 0 0 0 0 0
220 259 370 416 246 162 108 65 15 0 0 0 0 0 0 0 0 0 0 0 0 0 0 0 0 0 0 0 0 0 0 0 0 0 0 0 0 0 0 0 0 0 0
297 421 474 455 242 165 73 1 0 0 0 0 0 0 0 0 0 0 0 0 0 0 0 0 0 0 0 0 0 0 0 0 0 0 0 0 0 0 0 0 0 0 0
393 481 516 451 289 207 43 21 0 0 0 0 0 0 0 0 0 0 0 0 0 0 0 0 0 0 0 0 0 0 0 0 0 0 0 0 0 0 0 0 0 0 0
470 545 532 417 219 127 1 4 5 0 0 0 0 0 0 0 0 0 0 0 0 0 0 0 0 0 0 0 0 0 0 0 0 0 0 0 0 0 0 0 0 0 0
569 509 501 276 219 43 11 7 1 0 0 0 0 0 0 0 0 0 0 0 0 0 0 0 0 0 0 0 0 0 0 0 0 0 0 0 0 0 0 0 0 0 0

GFSSE_con_sbcape_036.txt.gz
CAPE
802 522 897 1088 1173 1138 1031 918 813 682 537 390 250 173 167 158 154 98 77 157 191 190 36 36 213 429 16 0 46 114 108 142 97 0 0 0 0 1 0 53 247 140 225
802 420 864 980 1073 1097 976 805 645 524 430 268 186 171 179 133 140 161 210 254 306 186 183 158 186 281 5 0 39 71 9 77 0 5 0 0 0 0 0 0 14 17 180
860 417 808 889 961 946 866 712 580 487 365 259 254 179 171 221 306 263 317 364 529 508 313 254 234 242 47 59 198 110 8 0 0 0 11 0 0 2 1 0 4 0 5
983 497 248 902 906 867 693 593 511 447 334 290 267 243 323 381 382 403 401 514 713 870 629 315 348 284 172 245 260 103 9 0 0 0 2 3 0 3 4 3 1 0 0
1115 639 552 914 862 822 651 551 429 361 285 309 308 452 498 482 491 491 427 384 464 700 477 453 483 410 299 312 225 115 7 0 0 7 6 18 16 15 10 14 24 10 6
1119 873 746 754 772 746 683 536 414 289 278 264 394 549 568 590 560 547 471 416 364 360 164 278 289 223 259 172 168 34 12 0 16 4 12 19 17 14 12 21 31 23 24
1241 1150 802 644 768 786 719 556 397 297 295 338 436 481 557 642 678 610 477 425 359 260 177 116 153 228 220 204 66 4 0 0 0 0 5 7 12 5 7 6 13 35 35
1134 972 890 672 781 664 583 456 311 320 366 397 468 500 592 629 568 512 462 488 457 280 226 326 268 222 205 51 0 0 0 0 0 0 5 10 14 1 2 4 8 9 18
719 581 307 154 175 245 191 321 325 393 415 486 512 563 531 413 316 321 329 346 394 369 242 245 280 241 45 0 0 0 0 0 0 2 3 11 0 0 0 0 1 5 12
70 165 2 0 0 0 112 313 340 379 445 469 475 387 291 281 294 302 294 339 415 475 282 148 196 96 0 0 0 0 0 0 0 1 12 11 18 3 0 0 1 3 3
7 1 4 1 0 0 21 324 381 435 452 374 307 250 85 20 14 37 142 317 248 271 133 4 0 0 0 0 0 0 0 0 0 0 9 27 21 19 1 0 3 3 3
7 12 17 11 0 0 14 105 355 314 233 230 124 62 50 116 137 46 123 28 24 7 0 0 0 0 0 0 0 0 0 0 0 0 1 0 17 31 21 16 21 18 16
7 8 15 19 67 32 36 119 295 246 251 260 227 150 158 130 174 136 53 0 0 0 0 0 0 0 0 0 0 0 0 0 0 0 0 0 12 52 41 23 15 19 9
13 14 10 20 25 46 94 157 177 156 132 171 133 156 202 140 216 134 26 5 0 0 0 0 0 0 0 0 0 0 0 0 0 0 0 0 0 26 95 42 19 19 5
0 4 23 40 68 83 114 61 92 81 88 105 100 43 40 98 273 96 18 0 0 0 0 0 0 0 0 0 0 0 0 0 0 0 0 0 0 16 32 87 45 15 6
0 0 0 0 36 37 46 82 81 120 110 91 141 186 264 215 166 54 5 0 0 0 0 0 0 0 0 0 0 0 0 0 0 0 0 0 0 0 17 80 65 37 7
35 21 25 52 85 60 100 170 70 71 48 102 333 459 406 256 126 38 0 0 0 0 0 0 0 0 0 0 0 0 0 0 0 0 0 0 0 0 21 2 1 0 3
36 24 29 58 162 288 270 165 29 119 118 227 369 463 314 159 43 0 0 0 0 0 0 0 0 0 0 0 0 0 0 0 0 0 0 0 0 0 3 0 0 0 0
1 8 0 98 298 509 528 150 84 243 398 550 544 427 100 15 0 0 0 0 0 0 0 0 0 0 0 0 0 0 0 0 0 0 0 0 0 0 2 0 0 0 0
0 5 31 250 425 636 527 198 72 452 645 688 643 457 189 11 0 0 0 0 0 0 0 0 0 0 0 0 0 0 0 0 0 0 0 0 0 0 0 0 0 0 0
82 163 230 309 550 759 569 136 141 422 568 575 589 374 179 2 0 0 0 0 0 0 0 0 0 0 0 0 0 0 0 0 0 0 0 0 0 0 0 0 0 0 0
189 245 326 455 661 771 609 190 358 566 550 457 212 61 0 0 0 0 0 0 0 0 0 0 0 0 0 0 0 0 0 0 0 0 0 0 0 0 0 0 0 0 0
267 321 367 561 841 990 719 358 342 524 235 65 3 0 0 0 0 0 0 0 0 0 0 0 0 0 0 0 0 0 0 0 0 0 0 0 0 0 0 0 0 0 0
576 513 492 554 834 989 866 465 233 227 410 132 4 0 0 0 0 0 0 0 0 0 0 0 0 0 0 0 0 0 0 0 0 0 0 0 1 0 0 1 0 3 0
756 650 796 785 908 1070 990 730 565 436 582 278 2 0 0 0 0 0 0 0 0 0 0 0 0 0 0 0 0 0 0 0 0 0 0 0 0 0 1 1 2 1 3
1082 903 935 962 993 1049 853 396 402 396 505 77 2 0 0 0 0 0 0 0 0 0 0 0 0 0 0 0 0 0 0 0 0 0 0 0 0 0 0 0 6 11 9

GFSSE_con_sbcape_039.txt.gz
CAPE
925 831 1322 1552 1428 1361 1261 1106 948 834 705 546 385 318 299 284 202 144 241 405 390 449 475 438 73 0 0 3 8 0 43 54 28 33 1 1 0 0 9 98 193 131 298
1005 894 1226 1502 1513 1484 1322 1127 907 715 593 457 395 383 323 192 171 319 341 356 385 394 420 273 0 0 0 0 0 1 0 11 69 73 40 0 4 1 0 0 5 16 114
989 885 1360 1366 1479 1410 1294 1051 856 717 524 456 459 356 259 273 373 455 513 557 588 558 303 175 0 0 0 0 42 3 0 0 0 32 165 0 3 12 6 15 16 2 1
957 918 1469 1220 1256 1213 1043 902 745 640 559 525 416 351 429 469 573 649 840 869 851 825 468 194 27 14 33 68 98 24 0 0 0 74 17 4 1 17 25 12 1 15 8
527 692 1230 1017 1063 1056 898 772 600 552 502 402 425 585 600 649 638 752 859 1035 1066 975 565 251 107 54 83 234 183 47 0 13 35 8 1 1 0 12 9 10 23 17 16
111 373 813 797 902 950 878 682 535 466 348 424 534 693 730 729 639 619 519 718 1035 958 559 318 115 75 201 210 132 11 0 45 83 25 10 4 1 9 5 16 18 42 43
39 453 887 763 809 963 894 655 485 483 415 579 629 693 694 694 736 644 437 456 533 594 448 209 116 148 241 153 1 0 3 55 3 25 11 3 3 3 5 3 8 10 9
1028 842 587 782 832 744 613 495 433 444 560 658 710 754 832 836 682 655 565 411 453 479 398 329 299 213 76 0 0 0 0 20 0 16 21 3 7 0 1 1 3 9 9
438 361 398 228 458 304 247 247 308 517 621 673 676 725 537 417 425 449 413 332 303 352 353 320 271 143 0 0 0 0 0 0 10 9 11 1 0 0 3 3 5 9 8
324 36 201 140 333 374 314 267 340 454 562 614 512 348 273 293 334 338 354 430 348 332 360 281 120 0 0 0 0 0 0 2 0 14 3 0 12 2 1 2 3 3 4
43 19 1 2 0 19 52 275 374 560 475 325 286 256 119 46 63 119 283 412 355 199 228 159 24 0 0 0 0 0 0 0 0 1 1 0 16 15 5 8 14 18 11
6 6 3 0 0 0 40 222 260 379 275 215 154 124 86 201 240 174 157 185 117 17 0 0 0 0 0 0 0 0 0 0 0 0 0 0 30 24 14 6 14 19 17
7 4 9 0 0 0 1 93 124 210 323 298 267 356 377 297 308 248 75 18 1 0 0 0 0 0 0 0 0 0 0 0 0 0 0 0 10 44 26 16 10 14 11
6 9 8 22 0 5 0 28 113 188 288 300 281 344 444 354 495 313 189 113 31 0 0 0 0 0 0 0 0 0 0 0 0 0 0 0 0 11 67 23 23 13 0
6 5 11 16 0 2 19 85 118 157 208 266 312 313 326 395 550 319 193 92 37 9 0 0 0 0 0 0 0 0 0 0 0 0 0 0 0 0 35 62 49 15 9
2 15 24 41 53 53 34 37 99 188 202 195 233 227 222 231 671 284 211 85 27 9 0 0 0 0 0 0 0 0 0 0 0 0 0 0 0 0 2 65 66 28 8
0 4 4 4 52 53 52 65 84 125 105 105 104 503 297 323 628 361 241 108 36 13 0 0 0 0 0 0 0 0 0 0 0 0 0 0 0 0 0 2 45 11 12
0 3 3 3 0 82 116 239 131 160 151 111 276 516 511 460 453 349 157 83 14 0 0 0 0 0 0 0 0 0 0 0 0 0 0 0 0 2 0 0 0 0 0
4 18 2 58 62 216 155 174 73 70 154 56 307 596 559 472 372 388 162 71 0 0 0 0 0 0 0 0 0 0 0 0 0 0 0 0 0 0 4 0 0 0 0
14 3 3 104 143 311 259 289 110 61 194 334 627 631 527 359 239 258 150 38 0 0 0 0 0 0 0 0 0 0 0 0 0 0 0 0 0 0 0 0 0 0 0
15 4 42 91 238 359 265 146 77 24 158 529 865 616 546 424 200 249 154 9 0 0 0 0 0 0 0 0 0 0 0 0 0 0 0 0 0 0 0 0 0 0 0
46 34 19 39 153 398 433 122 31 112 208 380 631 670 638 528 204 199 76 0 0 0 0 0 0 0 0 0 0 0 0 0 0 0 0 0 0 0 0 0 0 0 0
167 224 239 302 387 666 571 301 102 294 443 480 483 510 499 405 127 29 0 0 0 0 0 0 0 0 0 0 0 0 0 0 0 0 0 0 0 0 0 0 0 0 0
340 527 412 510 561 827 929 637 220 293 578 614 632 375 255 74 7 0 0 0 0 0 0 0 0 0 0 0 0 0 0 0 0 0 0 0 0 0 0 1 0 0 1
522 718 775 560 580 893 1152 1254 715 449 553 810 557 354 266 0 0 0 0 0 0 0 0 0 0 0 0 0 0 0 0 0 0 0 0 0 0 0 0 2 3 3 0
732 1015 1196 683 561 671 1250 1042 1009 701 741 840 663 298 70 4 1 0 0 0 0 0 0 0 0 0 0 0 0 0 0 0 0 0 1 0 0 0 0 0 0 0 5

GFSSE_con_sbcape_042.txt.gz
CAPE
725 1205 1469 1510 1435 1253 1128 1005 933 846 755 617 500 450 423 337 337 533 626 672 807 515 26 0 0 0 0 0 0 0 44 9 0 0 5 0 0 0 0 93 141 81 222
678 1463 1475 1509 1557 1462 1270 1087 944 859 725 629 574 485 322 320 551 605 505 545 751 564 0 0 0 0 0 0 0 0 43 106 74 44 7 5 6 8 4 0 5 2 23
853 1692 1802 1552 1635 1531 1370 1138 980 846 756 718 589 373 314 543 576 583 559 556 758 367 4 0 0 0 0 0 0 0 14 31 42 95 8 0 11 18 16 26 24 5 8
1198 1844 1831 1582 1571 1508 1316 1110 935 827 789 692 491 411 578 696 779 859 808 718 719 482 50 0 0 0 0 28 60 55 101 108 175 52 0 0 6 43 29 16 23 21 17
1045 1667 1588 1272 1161 1286 1163 980 788 739 637 533 509 658 814 857 1077 1099 1027 892 858 615 84 37 0 0 16 72 41 29 32 53 21 0 0 0 0 8 11 31 35 40 35
343 1365 821 910 1093 1054 1014 961 821 659 518 498 612 831 906 1044 1082 1191 1098 996 1000 723 112 53 0 3 127 35 27 44 74 91 27 0 0 0 0 6 11 17 19 25 34
861 1050 885 664 827 1012 1107 978 791 644 602 700 778 822 806 826 773 829 948 980 973 681 250 78 45 103 107 15 10 36 44 29 0 0 0 0 0 3 5 10 9 8 22
538 875 624 724 816 715 719 794 632 684 765 837 838 796 902 737 563 619 663 664 672 443 335 289 215 119 31 0 0 0 0 57 16 0 0 0 2 2 3 6 9 12 18
280 489 189 266 512 306 376 432 525 709 781 851 922 841 635 530 436 385 470 557 505 358 311 237 164 63 0 0 0 0 0 22 14 0 0 0 12 6 6 5 6 6 10
66 24 16 15 27 155 271 383 475 516 562 549 440 357 277 320 360 317 286 380 376 346 284 211 86 0 0 0 0 0 0 0 0 0 0 0 7 5 8 4 5 7 11
153 33 79 75 25 136 328 423 566 600 397 324 276 223 117 69 41 195 296 322 346 291 258 140 0 0 0 0 0 0 0 0 0 0 0 2 7 10 10 7 9 12 15
9 7 5 34 61 105 292 319 350 294 181 203 140 111 103 125 169 212 276 211 191 201 161 22 0 0 0 0 0 0 0 0 0 0 0 0 10 18 18 13 10 12 18
4 1 1 0 0 1 6 80 56 116 88 158 148 209 162 158 160 124 114 53 9 1 0 0 0 0 0 0 0 0 0 0 0 0 0 0 3 11 7 8 18 14 17
3 8 3 0 0 0 0 9 70 79 157 146 226 272 238 287 200 92 117 98 25 0 0 0 0 0 0 0 0 0 0 0 0 0 0 0 0 7 27 15 15 13 18
5 5 4 0 0 0 0 0 19 51 126 176 228 309 331 339 424 236 116 88 4 42 0 0 0 0 0 0 0 0 0 0 0 0 0 0 0 0 36 39 26 12 16
4 5 1 3 0 0 0 0 0 37 83 167 210 263 307 376 410 327 334 253 159 35 10 0 0 0 0 0 0 0 0 0 0 0 0 0 0 0 0 64 66 26 22
3 9 11 12 0 0 4 6 27 25 64 45 99 263 297 245 534 456 252 184 127 95 45 0 0 0 0 0 0 0 0 0 0 0 0 0 0 0 8 86 58 25 16
4 12 15 40 5 5 21 0 0 3 25 19 49 324 354 363 477 445 363 201 113 13 0 0 0 0 0 0 0 0 0 0 0 0 0 0 0 0 0 0 0 0 0
0 2 9 0 0 0 0 0 0 15 222 111 67 262 546 474 379 426 304 196 68 19 0 0 0 0 0 0 0 0 0 0 0 0 0 0 0 0 0 0 0 0 0
0 0 0 0 0 0 0 0 25 141 110 75 81 328 310 430 484 463 304 110 15 0 0 0 0 0 0 0 0 0 0 0 0 0 0 0 0 0 0 0 0 0 0
0 0 0 0 0 0 15 58 102 30 79 112 352 338 505 458 388 296 243 66 12 0 0 0 0 0 0 0 0 0 0 0 0 0 0 0 0 0 0 0 0 0 0
0 0 0 0 0 45 82 3 53 14 25 136 460 597 556 444 271 253 247 41 12 0 0 0 0 0 0 0 0 0 0 0 0 0 0 0 0 0 0 0 0 0 0
0 0 0 0 21 95 140 90 31 34 15 97 259 521 503 440 282 163 210 34 1 0 0 0 0 0 0 0 0 0 0 0 0 0 0 0 0 0 0 0 0 0 0
16 0 0 0 0 121 274 392 38 0 14 255 410 318 377 497 356 103 48 1 0 0 0 0 0 0 0 0 0 0 0 0 0 0 0 0 0 0 0 0 0 0 0
110 144 99 75 157 232 308 536 366 101 302 611 459 476 283 281 68 26 0 0 0 0 0 0 0 0 0 0 0 0 0 0 0 0 0 0 0 0 0 0 0 0 0
182 236 334 321 363 416 558 610 577 227 504 509 387 317 265 14 0 0 0 0 0 0 0 0 0 0 0 0 0 0 0 0 0 0 0 0 0 0 0 0 0 0 0

GFSSE_con_sbcape_045.txt.gz
CAPE
29 1123 1500 1659 1522 1396 1211 970 869 792 747 687 585 517 611 838 786 868 481 261 242 137 0 0 0 0 0 0 0 9 39 27 0 3 12 4 0 2 9 12 65 32 163
0 873 1187 1617 1641 1546 1323 1086 901 814 786 704 569 560 808 845 822 972 689 263 155 96 0 0 0 0 0 0 11 111 130 44 18 0 10 8 17 18 7 5 25 10 25
3 1 777 1508 1646 1627 1492 1193 988 944 888 688 585 712 859 765 743 905 736 178 181 103 0 0 0 0 0 0 30 84 54 20 29 5 7 7 6 24 30 18 30 21 20
0 3 736 1075 1666 1653 1309 1070 1014 1005 831 637 692 819 821 809 831 896 629 272 276 149 0 0 0 0 0 9 42 48 41 4 0 0 0 0 5 29 31 33 33 26 24
941 549 989 1246 1510 1413 1184 982 924 877 637 639 808 941 952 1014 1011 961 732 392 407 203 0 0 0 0 0 6 25 34 33 10 0 0 0 0 0 22 31 26 27 39 37
803 805 947 1028 1246 1258 1119 957 884 661 541 729 887 1003 1215 1257 1177 1074 858 587 523 183 0 0 0 0 8 0 18 10 10 0 0 0 0 0 0 14 15 15 33 43 46
391 167 592 520 712 844 911 974 804 666 722 870 945 1168 1326 1435 1327 1158 1002 673 451 222 18 0 0 0 0 0 19 26 9 0 0 0 0 0 0 10 14 16 26 30 25
560 518 582 488 383 615 681 626 740 756 873 878 906 953 1139 1206 1229 1224 1090 677 435 262 222 112 34 0 0 0 5 5 17 0 0 0 0 0 6 8 11 10 16 17 18
424 368 190 388 458 353 239 402 675 746 801 803 804 713 657 670 781 950 885 650 451 320 189 106 53 0 0 0 0 0 3 0 0 0 0 0 6 9 12 9 11 11 12
240 77 12 40 78 162 164 187 505 629 613 516 452 330 259 329 530 618 571 427 331 251 178 83 0 0 0 0 0 0 0 0 0 0 0 0 4 10 12 9 11 14 12
78 9 0 0 24 92 89 306 613 681 369 262 222 182 39 15 37 120 281 324 319 228 145 56 0 0 0 0 0 0 0 0 0 0 0 0 2 8 6 4 8 15 20
50 4 4 2 5 3 38 275 330 253 67 104 68 15 16 40 60 102 197 260 245 190 94 27 0 0 0 0 0 0 0 0 0 0 0 0 2 10 15 17 19 20 20
2 1 21 4 4 9 12 32 122 39 80 29 29 32 90 87 57 26 40 66 78 52 2 0 0 0 0 0 0 0 0 0 0 0 0 0 4 15 22 18 12 10 10
2 1 0 0 1 0 10 19 18 34 50 42 81 78 94 37 27 49 39 7 0 0 0 0 0 0 0 0 0 0 0 0 0 0 0 0 0 14 16 14 12 23 16
2 1 1 0 0 0 0 0 14 66 60 117 117 123 135 65 43 68 64 2 0 0 0 0 0 0 0 0 0 0 0 0 0 0 0 0 0 0 6 20 29 26 25
2 2 0 0 0 0 0 0 0 2 12 97 146 168 213 200 126 93 55 13 0 0 0 0 0 0 0 0 0 0 0 0 0 0 0 0 0 0 15 43 37 15 28
4 4 3 1 0 0 0 0 0 0 0 0 5 31 117 190 227 125 129 60 11 0 0 0 0 0 0 0 0 0 0 0 0 0 0 0 0 0 6 86 57 28 39
1 1 3 2 0 0 0 0 0 0 0 0 0 111 110 116 203 197 48 21 1 0 0 0 0 0 0 0 0 0 0 0 0 0 0 0 0 0 0 39 52 32 24
0 3 2 0 0 0 0 0 0 0 0 0 0 2 144 87 278 148 105 14 0 0 0 0 0 0 0 0 0 0 0 0 0 0 0 0 0 0 0 0 0 0 0
0 1 0 0 0 0 0 0 0 0 0 0 0 0 145 152 176 213 99 19 0 0 0 0 0 0 0 0 0 0 0 0 0 0 0 0 0 0 0 0 0 0 0
0 0 0 0 0 0 0 0 0 0 0 12 0 98 0 0 134 175 73 1 0 0 0 0 0 0 0 0 0 0 0 0 0 0 0 0 0 0 0 0 0 0 0
0 0 0 0 0 0 0 0 0 0 0 0 4 1 2 13 101 76 11 0 0 0 0 0 0 0 0 0 0 0 0 0 0 0 0 0 0 0 0 0 0 0 0
0 0 0 0 0 0 0 0 0 0 0 0 0 35 16 180 139 64 5 0 0 0 0 0 0 0 0 0 0 0 0 0 0 0 0 0 0 0 0 0 0 0 0
0 0 0 0 0 0 0 0 0 0 0 0 0 78 164 177 96 39 8 0 0 0 0 0 0 0 0 0 0 0 0 0 0 0 0 0 0 0 0 0 0 0 0
0 0 0 0 0 0 0 0 0 0 0 0 0 71 81 108 82 4 0 0 0 0 0 0 0 0 0 0 0 0 0 0 0 0 0 0 0 0 0 0 0 0 0
0 0 0 0 0 0 0 1 22 8 0 4 29 59 65 63 5 0 0 0 0 0 0 0 0 0 0 0 0 0 0 0 0 0 0 0 0 0 0 0 0 0 0

GFSSE_con_sbcape_048.txt.gz
CAPE
737 1411 1511 1653 1575 1368 1004 941 961 742 656 634 818 919 1012 700 523 477 402 298 173 39 0 0 4 1 2 1 0 5 3 7 20 30 25 13 23 30 31 18 50 34 89
479 1307 1491 1695 1632 1300 1157 1037 923 744 680 829 1035 1078 1147 731 572 502 361 244 72 0 0 2 3 5 6 7 61 28 36 22 12 18 23 25 18 14 16 9 31 47 101
843 1074 650 963 1225 1446 1308 1107 1032 890 746 1051 1023 1152 1261 917 616 475 334 152 8 0 0 0 0 1 6 17 33 9 7 0 2 18 7 0 8 23 29 18 25 24 28
102 791 999 906 890 1403 1276 1077 995 828 833 1101 1076 1211 1317 1101 632 535 350 139 24 0 0 0 0 0 0 4 4 35 0 0 0 0 0 0 6 21 19 22 17 16 22
4 139 181 5 305 965 1260 1119 821 652 791 958 939 1160 1345 1165 792 655 380 201 98 13 0 0 0 0 0 0 0 0 0 0 0 0 0 0 1 14 20 46 42 39 31
239 23 64 15 262 958 1175 1048 658 589 687 800 869 1139 1343 1233 891 741 478 334 189 0 0 0 0 0 3 5 19 7 0 0 0 0 0 0 0 16 38 44 40 35 29
461 153 80 90 229 618 1068 817 656 673 769 820 977 1097 1187 1267 976 782 554 352 172 8 0 0 0 14 0 8 9 0 0 0 0 0 0 0 0 15 22 18 15 16 13
285 508 554 421 339 412 517 481 607 715 903 1056 1125 1195 1252 1213 1014 803 569 369 257 168 45 0 0 19 5 0 0 0 0 0 0 0 0 0 8 8 13 14 15 16 19
441 481 419 144 367 20 58 143 627 733 930 975 1131 1189 1162 1077 985 768 603 418 250 120 53 0 0 0 18 0 0 0 0 0 0 0 0 0 7 7 10 10 13 15 18
134 240 24 68 97 8 8 40 299 597 576 494 563 578 669 812 793 623 392 318 189 127 63 0 0 0 0 0 0 0 0 0 0 0 0 0 7 7 13 16 21 18 16
69 15 15 4 4 22 13 79 153 422 365 263 213 113 92 128 189 77 170 212 184 85 65 0 0 0 0 0 0 0 0 0 0 0 0 6 6 8 11 15 19 21 18
37 2 7 1 1 3 16 33 172 284 140 41 3 0 0 3 36 86 126 143 107 77 64 12 0 0 0 0 0 0 0 0 0 0 0 8 9 15 15 19 18 24 23
15 6 1 5 1 0 0 1 66 57 17 0 0 5 9 2 22 28 19 25 38 60 23 1 0 0 0 0 0 0 0 0 0 0 0 0 4 11 15 18 24 17 10
0 5 3 0 3 3 0 0 29 11 0 0 0 5 1 0 2 4 0 0 0 0 0 0 0 0 0 0 0 0 0 0 0 0 0 0 22 13 18 17 26 20 9
1 1 2 1 8 5 0 0 6 0 0 1 8 0 0 0 2 3 0 0 0 0 0 0 0 0 0 0 0 0 0 0 0 0 0 0 15 31 19 23 21 30 20
2 2 0 1 2 0 0 0 0 0 0 10 23 4 0 3 8 3 0 0 0 0 0 0 0 0 0 0 0 0 0 0 0 0 0 0 0 0 17 10 28 41 37
1 3 1 0 0 0 0 0 0 0 0 26 43 38 15 15 23 15 12 0 0 0 0 0 0 0 0 0 0 0 0 0 0 0 0 0 0 0 0 90 67 34 53
2 2 6 1 0 0 0 0 0 0 0 0 0 26 56 86 97 59 19 15 1 0 0 0 0 0 0 0 0 0 0 0 0 0 0 0 0 0 0 87 111 40 39
0 1 2 5 0 0 0 0 0 0 0 0 0 0 42 50 131 109 25 10 0 0 0 0 0 0 0 0 0 0 0 0 0 0 0 0 0 0 0 0 6 11 26
0 0 1 0 0 0 0 0 0 0 0 0 0 0 0 48 64 48 40 12 0 0 0 0 0 0 0 0 0 0 0 0 0 0 0 0 0 0 0 0 0 0 0
0 1 0 0 0 0 0 0 0 0 0 0 0 0 3 14 69 71 7 0 0 0 0 0 0 0 0 0 0 0 0 0 0 0 0 0 0 0 0 0 0 0 0
0 0 0 0 0 0 0 0 0 0 0 0 0 0 0 0 8 63 29 1 0 0 0 0 0 0 0 0 0 0 0 0 0 0 0 0 0 0 0 0 0 0 0
0 0 0 0 0 0 0 0 0 0 0 0 0 0 0 0 0 16 12 0 0 0 0 0 0 0 0 0 0 0 0 0 0 0 0 0 0 0 0 0 0 0 0
0 0 0 0 0 0 0 0 0 0 0 0 0 0 0 1 11 13 2 0 0 0 0 0 0 0 0 0 0 0 0 0 0 0 0 0 0 0 0 0 0 0 0
0 0 0 0 0 0 0 0 0 0 0 0 0 0 1 9 20 27 0 0 0 0 0 0 0 0 0 0 0 0 0 0 0 0 0 0 0 0 0 0 0 0 0
0 0 0 0 0 0 0 0 0 0 0 0 0 0 0 41 40 15 0 0 0 0 0 0 0 0 0 0 0 0 0 0 0 0 0 0 0 0 0 0 0 0 0

GFSSE_con_sbcape_051.txt.gz
CAPE
1366 1477 1508 1586 1326 1197 1023 935 1049 925 964 1054 1017 828 817 700 541 378 197 105 144 220 30 8 7 3 4 9 15 14 17 31 24 24 36 32 26 17 43 64 63 39 99
1323 1435 1421 1512 1381 1268 1145 1056 990 1077 1197 1301 1061 931 815 708 596 418 203 231 292 287 52 31 14 11 6 6 7 4 3 19 31 41 38 24 25 25 23 38 86 53 70
1385 1523 1449 1467 1475 1308 1253 1222 1044 1257 1406 1507 1170 991 922 766 562 349 210 253 420 378 78 59 48 34 17 8 9 14 10 15 30 30 22 8 4 22 18 15 31 18 22
1341 955 1041 1445 1464 1396 1230 1118 1107 1381 1525 1560 1260 1009 871 704 470 258 183 281 418 379 46 12 4 0 0 48 21 5 0 0 0 0 0 0 5 48 42 31 18 28 21
330 952 674 920 1137 903 1206 1175 1015 1230 1342 1457 1293 988 805 674 508 279 141 279 472 378 26 1 0 0 7 4 0 0 0 0 0 0 0 0 3 21 45 40 28 15 19
225 457 896 905 1100 853 702 1016 970 1266 1182 1385 1337 909 862 732 531 335 150 338 561 207 0 0 0 0 17 0 0 0 0 0 0 0 0 0 0 21 19 27 19 16 19
217 62 397 304 718 723 563 452 668 1181 1092 1245 1145 801 812 696 589 374 178 160 128 8 0 0 0 154 37 0 0 0 0 0 0 0 0 0 2 17 16 17 16 19 21
607 120 68 265 283 538 584 348 573 970 980 874 1035 813 820 685 529 406 262 139 37 0 3 0 0 18 0 0 0 0 0 0 0 0 0 0 15 16 21 20 18 18 20
435 584 136 125 15 83 77 148 208 864 799 740 891 881 731 580 422 360 178 30 0 0 0 0 0 0 3 0 0 0 0 0 0 0 0 0 13 17 21 19 17 12 12
391 393 256 3 2 1 12 16 209 656 687 708 938 991 630 505 410 214 28 0 0 0 0 0 0 13 1 4 0 0 0 0 0 0 0 0 17 19 20 17 14 12 11
121 252 171 4 2 2 8 25 85 629 636 649 768 720 356 162 51 0 6 0 0 0 0 0 0 4 10 0 0 0 0 0 0 0 0 25 17 16 13 15 16 11 11
57 134 45 4 3 1 0 0 0 4 347 370 395 133 33 3 0 0 0 0 0 0 0 0 0 0 0 0 0 0 0 0 0 0 0 17 13 11 12 20 28 27 16
9 13 3 1 8 7 4 0 0 7 97 55 65 65 4 0 0 0 0 0 0 0 0 0 0 0 0 0 0 0 0 0 0 0 0 15 5 17 29 36 31 32 18
3 4 2 1 0 0 1 0 0 28 13 16 47 7 1 0 0 0 0 0 0 0 0 0 0 0 0 0 0 0 0 0 0 0 0 0 21 20 34 42 36 24 16
0 2 6 3 4 0 0 2 2 15 0 11 28 0 0 0 0 0 0 0 0 0 0 0 0 0 0 0 0 0 0 0 0 0 0 0 19 26 20 33 37 24 11
1 2 2 11 6 0 0 0 22 0 1 0 0 0 0 0 0 0 0 0 0 0 0 0 0 0 0 0 0 0 0 0 0 0 0 0 0 17 20 22 35 38 14
2 1 0 6 16 4 2 5 0 0 0 0 0 0 0 0 0 0 0 0 0 0 0 0 0 0 0 0 0 0 0 0 0 0 0 0 0 0 0 36 31 29 18
1 1 1 1 0 0 0 0 0 0 0 26 0 1 1 1 0 0 0 0 0 0 0 0 0 0 0 0 0 0 0 0 0 0 0 0 0 0 0 0 96 41 51
1 3 1 2 0 0 0 0 0 0 0 7 2 12 24 33 27 21 10 4 0 0 0 0 0 0 0 0 0 0 0 0 0 0 0 0 0 0 0 0 3 47 94
0 2 4 2 0 0 0 0 0 0 0 0 0 17 38 47 82 41 20 4 0 0 0 0 0 0 0 0 0 0 0 0 0 0 0 0 0 0 0 0 0 0 31
0 1 4 2 0 0 0 0 0 0 0 0 0 0 0 9 57 58 36 2 0 0 0 0 0 0 0 0 0 0 0 0 0 0 0 0 0 0 0 0 0 0 0
1 0 0 1 0 0 0 1 0 0 0 0 0 0 0 4 9 55 57 33 0 0 0 0 0 0 0 0 0 0 0 0 0 0 0 0 0 0 0 0 0 0 0
0 0 0 0 0 0 0 0 0 0 0 0 0 0 0 0 2 11 56 10 0 0 0 0 0 0 0 0 0 0 0 0 0 0 0 0 0 0 0 0 0 0 0
0 0 0 0 0 0 0 0 0 0 0 0 0 0 0 0 1 0 0 2 0 0 0 0 0 0 0 0 0 0 0 0 0 0 0 0 0 0 0 0 0 0 0
0 0 0 0 0 0 0 0 0 0 0 0 0 0 0 0 0 0 0 0 0 0 0 0 0 0 0 0 0 0 0 0 0 0 0 0 0 0 0 0 0 0 0
0 0 0 0 0 0 0 0 0 0 0 0 0 0 0 0 0 0 0 0 0 0 0 0 0 0 0 0 0 0 0 0 0 0 0 0 0 0 0 0 0 0 0

GFSSE_con_sbcape_054.txt.gz
CAPE
706 112 1132 1401 1431 1014 1102 897 971 1149 1269 1322 1229 1159 1103 1073 794 472 345 299 274 334 51 24 32 37 31 27 17 12 10 23 32 67 71 53 68 92 76 63 53 43 133
1345 1381 1425 1472 1423 1286 1202 1130 1125 1217 1309 1352 1236 1175 1092 904 538 386 381 369 357 276 13 14 14 11 11 13 18 22 31 31 34 49 48 29 47 44 40 38 56 51 74
1414 1480 1391 1464 1459 1352 1315 1323 1350 1437 1340 1333 1207 1049 999 813 510 541 500 476 495 439 88 59 49 35 16 11 18 23 17 30 36 33 24 1 7 21 3 4 31 30 21
1522 1460 1314 1457 1477 1445 1395 1379 1461 1677 1436 1324 1190 1115 955 693 669 663 545 446 540 587 187 162 145 42 18 27 17 10 1 3 3 5 0 6 16 28 31 23 25 15 20
1349 976 1224 1361 1459 1471 1454 1468 1526 1598 1228 1207 1135 1091 877 687 701 729 479 483 566 386 131 93 84 57 13 24 11 4 0 0 0 0 0 1 8 19 18 17 19 26 30
504 821 949 1156 1373 1616 1518 1582 1559 1574 1144 994 957 994 773 612 758 630 424 444 479 124 9 43 105 0 0 0 0 0 0 0 0 0 0 19 14 25 19 21 21 20 23
424 762 926 1148 1186 1411 1510 1516 1443 1436 1178 929 826 753 632 516 538 546 455 384 157 24 5 5 13 0 0 0 0 0 0 0 0 0 0 0 2 17 19 19 19 18 20
311 150 605 1028 1037 831 868 869 884 1088 1074 823 677 751 564 432 402 486 272 66 22 83 300 279 51 0 0 0 0 0 0 0 0 0 0 0 17 18 21 20 16 16 19
366 164 75 194 294 290 158 27 314 654 792 785 693 681 528 457 290 250 101 8 1 52 231 87 0 0 0 0 0 0 0 0 0 0 0 0 18 19 21 21 19 17 17
600 195 32 2 6 1 2 1 33 452 609 600 655 649 465 409 285 86 0 0 0 0 14 55 0 0 0 0 0 0 0 0 0 0 0 6 14 22 26 18 12 12 10
243 1 1 2 1 2 0 1 58 162 213 427 629 480 308 182 65 0 0 0 0 0 0 0 4 0 0 0 0 0 0 0 0 0 0 27 24 24 20 13 12 10 10
139 2 1 0 1 0 2 12 19 13 153 298 428 303 192 90 1 0 0 0 0 0 0 4 28 18 0 0 0 0 0 0 0 0 0 29 22 20 13 16 12 11 9
35 8 6 2 1 0 2 0 0 0 50 224 268 240 117 60 65 0 0 0 0 0 0 0 0 0 0 0 0 0 0 0 0 0 6 22 14 16 14 29 21 11 9
2 1 7 3 4 1 0 0 0 0 1 27 152 217 132 54 24 0 0 0 0 0 0 0 0 0 0 0 0 0 0 0 0 0 2 12 24 16 28 36 34 24 10
3 3 5 6 5 0 0 0 0 0 0 36 61 147 123 39 9 0 0 0 0 0 0 0 0 0 0 0 0 0 0 0 0 0 0 0 12 19 34 44 45 33 13
0 3 2 1 2 0 0 0 0 0 0 17 59 40 44 8 0 0 0 0 0 0 0 0 0 0 0 0 0 0 0 0 0 0 0 0 0 11 37 52 50 40 29
0 0 5 4 0 0 0 0 0 0 0 4 33 7 2 0 0 0 0 0 0 0 0 0 0 0 0 0 0 0 0 0 0 0 0 0 0 0 14 55 49 43 22
0 1 0 7 2 0 0 0 4 6 1 6 16 0 0 0 0 0 0 0 0 0 0 0 0 0 0 0 0 0 0 0 0 0 0 0 0 0 0 5 44 45 26
0 1 0 1 4 8 3 0 0 0 5 7 0 0 7 4 0 0 0 0 0 0 0 0 0 0 0 0 0 0 0 0 0 0 0 0 0 0 0 0 2 36 82
0 0 1 2 1 1 0 0 0 0 0 0 0 8 23 30 15 14 2 0 0 0 0 0 0 0 0 0 0 0 0 0 0 0 0 0 0 0 0 0 0 0 0
0 3 1 2 3 0 0 0 0 0 0 0 1 28 50 64 73 49 37 17 0 0 0 0 0 0 0 0 0 0 0 0 0 0 0 0 0 0 0 0 0 0 0
1 1 2 2 1 0 0 0 0 0 0 0 0 6 10 24 68 76 39 33 0 0 0 0 0 0 0 0 0 0 0 0 0 0 0 0 0 0 0 0 0 0 0
0 0 2 0 0 0 0 0 0 0 0 0 0 0 0 1 1 39 34 15 0 0 0 0 0 0 0 0 0 0 0 0 0 0 0 0 0 0 0 0 0 0 0
0 0 0 0 0 0 0 0 0 0 0 0 0 0 0 0 0 1 20 13 0 0 0 0 0 0 0 0 0 0 0 0 0 0 0 0 0 0 0 0 0 0 0
0 0 0 0 0 0 0 0 0 0 0 0 0 0 0 0 0 0 0 0 0 0 0 0 0 0 0 0 0 0 0 0 0 0 0 0 0 0 0 0 0 0 0
0 0 0 0 0 0 0 0 0 0 0 0 0 0 0 0 0 0 0 0 0 0 0 0 0 0 0 0 0 0 0 0 0 0 0 0 0 0 0 0 0 0 0

GFSSE_con_sbcape_057.txt.gz
CAPE
1065 1227 1211 1165 1570 1568 1748 1651 1504 1426 1384 1313 1184 1140 1202 1224 1246 1097 979 818 712 612 185 85 81 57 39 66 44 41 164 230 195 194 198 70 64 72 67 141 84 55 178
1085 1132 1140 1402 1488 1600 1776 1814 1575 1537 1591 1375 1262 1264 1211 1063 1022 881 733 664 517 372 45 50 34 31 22 28 22 66 59 36 32 94 111 40 29 24 34 20 74 34 52
981 547 1053 1495 1426 1575 1734 1809 1718 1696 1632 1456 1409 1297 1060 838 710 563 443 378 341 230 24 23 23 27 35 23 64 49 22 16 15 17 35 16 7 13 7 4 22 12 15
1061 967 1259 1528 1526 1697 1676 1735 1724 1764 1615 1586 1429 1156 871 821 758 632 455 370 344 278 15 21 19 21 23 46 55 31 9 16 19 22 5 5 23 20 11 2 5 8 5
1572 1437 1402 1564 1538 1724 1719 1692 1650 1589 1503 1370 1228 1023 855 872 859 766 608 548 448 456 224 32 12 15 28 58 12 4 3 10 18 9 19 26 11 25 22 31 17 24 23
1294 1555 1489 1383 1364 1673 1771 1811 1640 1477 1274 1113 1065 887 944 954 947 776 604 609 643 605 176 14 6 8 21 4 0 0 4 8 4 6 17 18 14 29 28 24 18 12 15
599 1313 1587 1245 1313 1639 1773 1872 1550 1374 1152 1025 890 746 818 944 825 657 541 467 429 522 470 71 1 2 2 0 0 0 0 0 3 3 5 14 25 29 29 25 20 20 19
372 321 996 1264 1390 1313 1339 1749 1385 1219 1083 949 707 641 784 620 527 507 443 239 234 381 374 126 0 0 0 0 0 0 0 0 0 4 9 21 38 29 20 17 17 16 17
469 197 327 256 817 642 761 1145 1134 991 989 826 539 456 457 343 410 414 175 208 334 307 294 77 0 0 0 0 0 0 0 0 0 2 5 15 24 22 17 17 17 15 11
767 491 444 202 7 0 166 114 386 582 669 676 462 329 212 254 244 157 93 246 516 423 230 35 0 0 0 0 0 0 0 0 0 2 6 16 26 21 22 17 17 13 10
349 258 89 83 2 4 17 2 98 342 309 557 487 283 147 222 61 0 2 136 290 201 78 50 0 0 0 0 0 0 0 0 0 5 6 30 25 22 22 17 13 9 8
63 89 6 35 35 11 15 2 15 26 159 267 469 405 175 79 0 0 1 21 65 115 105 64 12 1 0 0 0 0 0 0 0 6 10 32 26 18 16 15 11 8 8
1 1 4 4 2 2 1 2 4 0 34 108 402 228 111 34 21 4 0 0 29 58 70 36 3 0 0 0 0 0 0 0 1 3 10 31 28 20 14 14 12 8 5
3 13 11 6 4 4 1 2 0 13 34 90 355 185 87 27 0 0 0 0 0 0 9 32 0 0 0 0 0 0 0 0 0 4 9 21 34 20 35 24 17 10 5
11 4 5 7 7 7 2 5 0 16 38 28 269 175 51 12 3 0 0 0 0 0 0 0 0 0 0 0 0 0 0 0 0 2 7 15 26 35 27 29 26 15 14
10 5 4 8 7 1 0 0 7 3 1 59 149 127 66 26 29 0 0 0 0 0 0 0 0 0 0 0 0 0 0 0 0 1 4 9 5 24 35 26 32 28 23
9 5 6 8 6 0 0 0 9 0 0 39 146 138 80 85 49 24 0 0 0 0 0 0 0 0 0 0 0 0 0 0 0 0 0 1 0 0 12 44 47 35 39
0 5 5 5 2 0 0 0 0 0 0 5 69 103 48 32 69 66 2 2 0 0 0 0 0 0 0 0 0 0 0 0 0 0 0 0 0 0 0 3 56 88 38
1 1 6 3 3 9 0 0 12 10 0 0 16 46 26 5 29 45 22 24 6 3 0 0 0 0 0 0 0 0 0 0 0 0 0 0 0 0 0 0 5 73 105
1 2 1 3 2 8 4 5 19 26 14 2 2 30 38 18 39 65 45 35 11 26 0 0 0 0 0 0 0 0 0 0 0 0 0 0 0 0 0 0 0 39 51
3 3 2 3 2 6 6 15 15 5 2 31 29 37 31 32 52 59 92 52 25 23 30 9 0 0 0 0 0 0 0 0 0 0 0 0 0 0 0 0 0 3 51
4 1 5 6 4 4 5 13 12 0 0 28 63 61 56 69 72 132 107 108 74 70 41 14 0 0 0 0 0 0 0 0 0 0 0 0 0 0 0 0 0 0 1
6 14 5 7 3 6 12 6 1 1 0 0 0 28 62 119 165 135 148 168 135 87 100 42 0 0 0 0 0 0 0 0 0 0 0 0 0 0 0 0 0 0 0
6 13 21 7 3 3 1 2 0 1 0 0 0 0 2 34 58 132 111 83 81 51 71 29 0 0 0 0 0 0 0 0 0 0 0 0 0 0 0 0 0 0 0
6 5 14 6 2 0 2 5 4 0 0 0 0 0 0 7 21 23 35 72 121 103 119 34 1 0 0 0 0 0 0 0 0 0 0 0 0 0 0 0 0 0 0
2 7 11 9 1 0 0 0 0 0 0 0 0 0 0 0 0 5 0 5 60 174 166 149 101 11 0 0 0 0 0 0 0 0 0 0 0 0 0 0 0 0 0

GFSSE_con_sbcape_060.txt.gz
CAPE
1341 1452 1298 1572 1846 1909 1713 1521 1438 1500 1388 1315 1145 1243 1260 1273 1259 1019 936 829 724 784 469 302 241 283 271 235 171 153 323 334 348 307 294 242 130 162 99 291 219 138 247
1377 1421 1219 1551 1916 2009 1783 1646 1669 1586 1551 1464 1342 1417 1398 1360 1295 1215 1019 829 609 628 196 87 69 158 71 34 80 161 262 231 144 177 215 77 80 85 63 51 194 57 64
1306 1504 1164 1402 1842 2054 1918 1854 1819 1775 1699 1498 1557 1512 1529 1435 1322 1071 800 624 602 612 106 19 12 28 21 8 39 17 4 8 71 48 69 37 17 15 12 9 35 21 19
1518 1615 1242 1498 1753 2097 2045 1955 1882 1921 1753 1611 1636 1511 1508 1269 1059 833 554 404 414 357 28 21 16 13 17 41 16 14 8 5 0 23 10 21 15 15 14 9 11 12 10
1559 1266 1240 1482 1514 2000 1993 1994 1898 1824 1663 1617 1500 1388 1302 1128 903 669 344 199 252 159 12 13 18 25 24 40 0 13 6 2 5 6 1 7 4 26 18 10 11 11 12
1117 1234 1253 1484 1540 1951 2051 2071 1930 1703 1533 1481 1288 1342 1319 1175 904 643 301 337 492 273 9 14 20 21 23 17 13 10 0 0 8 0 0 7 8 21 13 10 12 13 12
1021 1807 1361 1340 1237 1625 2100 2119 1909 1689 1509 1287 1231 1249 1231 1195 1041 617 458 432 519 206 62 12 15 15 16 1 0 0 0 1 1 0 4 9 21 22 21 21 18 19 14
1360 1046 1473 1139 1044 1495 1717 1751 1624 1469 1377 1170 1179 1185 1220 1104 875 728 635 587 484 234 94 43 36 5 0 0 0 0 0 0 0 1 4 12 34 22 21 21 18 14 12
1199 766 823 595 300 513 738 1197 893 1232 1190 1072 1073 1084 1008 817 704 594 551 612 488 176 114 47 5 0 0 0 0 0 0 7 0 1 0 11 23 21 22 16 13 11 11
970 510 727 605 360 229 110 364 588 683 894 851 964 892 612 587 521 260 226 410 405 191 65 72 0 0 0 0 0 0 0 0 2 1 7 12 27 20 15 14 12 13 14
1071 830 831 428 314 171 146 171 639 792 665 616 861 640 463 513 268 96 83 299 326 89 54 72 0 0 0 0 0 0 0 0 7 4 2 29 22 19 15 16 12 12 8
480 230 396 149 201 97 60 19 91 314 408 524 589 747 423 533 233 8 187 285 181 96 98 59 0 0 0 0 0 0 0 3 11 9 6 33 18 21 18 19 12 11 7
387 118 166 196 72 119 97 60 7 35 62 100 167 421 473 372 130 87 285 305 220 47 11 0 0 0 0 0 0 0 0 1 13 7 8 35 25 23 22 18 18 12 4
134 234 21 151 28 68 87 10 27 25 83 82 65 166 282 133 151 137 168 159 125 62 53 6 1 8 0 0 0 0 0 0 8 9 11 34 40 21 19 11 11 9 5
85 14 7 11 21 8 1 0 1 3 44 74 42 154 252 191 139 53 82 106 125 171 155 51 34 21 0 0 0 0 0 0 3 6 12 23 39 43 25 24 11 5 11
67 45 8 9 15 11 8 7 7 10 19 63 60 223 247 175 133 54 40 1 11 90 122 40 22 19 0 0 0 0 0 0 1 5 6 14 26 54 68 38 26 18 16
46 33 8 10 9 15 12 9 17 8 34 34 67 230 211 156 145 90 27 20 5 17 13 8 8 9 3 1 0 0 0 0 0 0 8 12 7 12 39 83 49 23 23
22 5 13 8 8 17 13 10 12 3 17 84 118 181 155 136 117 89 40 29 8 0 0 5 3 9 3 0 0 0 0 0 0 0 0 4 12 6 2 44 68 74 40
4 18 9 9 5 6 2 1 9 0 1 53 101 140 135 101 106 82 50 97 50 0 0 0 0 0 0 0 0 0 0 0 0 0 0 0 0 1 5 0 12 43 60
18 3 13 9 7 8 1 6 30 0 1 23 43 171 121 90 108 76 58 118 84 28 22 10 0 0 0 0 0 0 0 0 0 0 0 0 0 0 0 1 0 9 33
8 13 3 6 3 9 8 16 35 22 0 11 25 69 131 108 142 138 119 132 108 99 94 76 32 17 0 0 0 0 0 0 0 0 0 0 0 0 0 0 0 2 12
13 23 3 4 8 5 12 0 6 48 45 13 7 40 108 150 132 134 150 119 106 147 156 130 94 71 29 0 2 13 6 0 0 0 0 0 0 0 0 0 0 0 0
6 3 26 35 9 4 2 14 27 41 1 18 18 14 56 153 198 118 139 174 167 153 196 207 169 160 133 38 11 130 151 105 106 0 0 0 0 0 0 0 0 0 0
1 11 22 34 35 17 11 12 22 3 8 0 18 42 87 124 162 157 131 192 251 236 203 269 268 242 266 235 19 1 74 68 109 57 0 0 0 0 0 0 0 0 0
0 7 11 21 16 10 15 12 8 2 0 0 6 45 98 79 114 146 167 231 286 285 261 293 244 217 245 264 196 147 11 0 0 0 0 0 0 0 0 0 0 0 0
0 1 8 7 14 12 11 12 12 11 0 0 5 5 8 36 83 106 142 246 279 208 119 54 156 296 306 238 210 190 102 13 0 0 0 0 0 0 0 0 0 0 0

GFSSE_con_sbcape_066.txt.gz
CAPE
1741 1280 1619 1865 1796 1628 1584 1483 1438 1474 1190 1126 1395 1402 1381 1207 1014 846 789 731 686 788 681 545 689 403 444 442 387 619 512 436 422 499 445 498 301 284 376 416 270 137 540
1961 1301 1572 1861 2046 1817 1769 1659 1600 1603 1366 1331 1467 1474 1394 1261 1094 1011 1014 932 1110 1196 718 602 511 210 420 334 540 490 470 399 342 371 445 215 162 109 121 264 179 122 265
2004 1570 1384 1806 2158 1961 1888 1831 1791 1726 1636 1505 1566 1515 1407 1360 1291 1266 1255 1148 1140 1120 684 573 379 247 329 429 380 391 354 405 235 177 134 11 22 25 22 26 28 16 17
1457 1766 1579 1606 2001 2055 1902 1803 1857 1872 1797 1627 1613 1666 1499 1477 1585 1343 1169 1048 1121 1112 625 504 334 137 166 233 176 273 357 169 73 89 2 11 14 31 23 24 21 21 22
1399 1776 1683 1522 1742 2043 1871 1730 1861 1807 1672 1593 1630 1784 1572 1675 1573 1365 1096 999 1015 993 472 323 93 44 54 14 25 26 24 44 124 7 0 2 9 26 21 17 15 10 11
1340 1700 1050 1353 1632 2010 1965 1779 1684 1741 1520 1562 1660 1745 1874 1679 1552 1260 980 835 839 790 321 98 29 4 1 0 0 0 1 11 21 0 0 16 9 25 9 11 16 17 13
1463 2062 1299 1124 1451 1759 1703 1611 1119 938 1405 1342 1764 1755 1639 1519 1333 1080 913 714 526 368 326 93 7 0 0 0 0 0 0 17 0 0 0 0 3 17 21 18 15 16 16
1183 1903 1894 1155 1279 1195 1110 659 401 588 900 1154 1667 1569 1473 1231 971 869 696 539 393 212 163 86 9 0 0 0 0 0 0 10 0 0 0 3 30 21 19 18 15 14 12
1444 1500 1721 1866 1130 241 228 122 10 3 76 828 1264 1226 1088 775 644 684 619 461 378 228 127 39 0 0 0 0 0 0 0 17 0 0 0 3 26 21 19 17 13 11 9
1325 1358 1108 1231 624 343 240 50 21 1 17 105 847 765 602 627 798 609 350 318 293 184 79 4 0 0 0 0 0 0 0 11 0 0 0 7 28 23 15 13 12 12 11
1243 1158 1134 928 512 434 174 110 35 9 0 15 663 463 412 521 557 306 143 193 197 67 53 16 0 0 0 0 0 0 6 0 0 0 0 28 25 22 16 11 11 11 10
798 1136 1147 625 312 132 106 118 141 20 2 8 367 322 367 485 398 277 153 111 78 7 4 10 0 0 0 0 0 0 0 10 0 0 0 30 25 18 14 10 10 9 7
755 807 697 389 331 198 178 216 108 0 12 195 304 259 405 425 249 199 49 19 0 0 0 0 0 0 0 0 0 0 14 5 0 0 6 35 29 17 14 8 6 5 3
423 332 337 250 215 164 111 135 48 27 2 151 201 196 275 231 126 161 0 0 0 0 0 0 0 0 0 0 0 1 16 1 0 0 12 31 26 19 16 12 8 4 2
148 36 146 61 40 37 85 69 34 20 17 48 127 93 124 117 126 96 0 0 0 0 0 0 0 0 0 0 1 0 22 4 0 0 4 30 29 30 18 16 8 3 2
147 50 49 55 9 18 41 41 29 0 3 3 0 22 27 58 132 129 21 0 2 0 0 0 0 0 0 0 0 0 32 6 0 0 0 9 20 24 19 11 13 9 6
47 25 3 14 11 5 29 23 20 7 1 0 0 12 17 30 115 114 105 29 20 0 0 0 16 0 1 0 0 5 10 29 2 0 0 0 3 13 17 26 12 7 10
137 94 0 2 6 7 10 4 4 9 2 0 0 4 4 13 70 98 89 110 96 32 87 19 8 0 2 0 0 0 0 6 15 0 0 0 0 1 9 26 32 28 16
91 85 8 9 6 3 0 5 2 1 3 2 1 0 0 2 23 74 54 106 134 85 115 30 20 3 3 1 0 0 2 2 5 2 2 0 0 0 0 0 5 15 23
82 16 0 9 8 5 5 6 7 2 12 5 6 0 0 0 40 69 49 82 56 8 97 53 63 67 10 5 0 0 8 1 0 0 1 1 0 0 0 0 0 0 1
102 6 9 10 2 0 1 10 4 2 2 1 0 0 0 10 35 40 56 71 54 53 30 45 77 22 15 7 14 5 0 0 0 0 0 0 0 0 0 0 0 0 0
92 14 11 6 0 0 0 2 9 2 1 0 7 1 1 7 9 16 37 85 113 105 71 62 18 7 1 2 0 0 0 0 0 0 0 0 0 0 0 0 0 0 0
133 0 7 10 0 0 3 1 8 3 4 3 1 9 1 1 4 6 89 93 88 177 140 118 148 42 36 8 1 0 0 0 0 0 0 0 0 0 0 0 0 0 0
38 7 1 5 2 0 0 5 3 6 3 0 4 0 0 4 18 15 80 83 98 148 176 165 161 166 126 20 5 0 29 114 51 0 0 0 0 0 0 0 0 0 0
22 19 0 1 8 1 3 2 3 2 2 0 1 0 0 0 22 42 97 132 190 119 146 123 123 151 172 106 54 86 62 66 80 48 2 0 0 0 0 0 0 0 0
20 17 5 2 5 10 2 4 0 0 1 1 0 0 0 0 0 22 61 71 72 110 114 89 57 61 132 100 99 133 156 68 82 57 26 21 0 0 0 0 0 0 0

GFSSE_con_sbcape_069.txt.gz
CAPE
1221 1579 1527 1540 1562 1606 1497 1450 1407 1224 1313 1503 1497 1377 1301 1227 1123 955 862 761 652 748 751 718 784 668 673 678 704 824 695 596 570 706 686 663 314 336 260 416 388 186 644
1224 1531 1749 1641 1649 1738 1703 1601 1531 1322 1522 1639 1605 1417 1278 1175 1091 1018 939 829 882 992 758 604 602 373 357 511 705 600 531 450 406 455 522 291 248 244 163 132 295 200 385
1184 1451 1836 1839 1696 1765 1814 1781 1739 1536 1665 1757 1674 1499 1292 1257 1208 1030 1067 1325 1338 1282 874 184 225 319 477 705 543 473 403 204 128 114 102 14 46 150 117 62 84 62 55
1247 1285 1605 2024 1852 1834 1816 1794 1815 1767 1778 1831 1735 1567 1456 1469 1516 1500 1353 1249 1278 1160 841 479 338 256 520 498 426 370 162 58 23 29 14 26 47 105 67 36 27 22 18
1078 1302 1371 1838 1971 1913 1845 1801 1793 1763 1657 1767 1675 1625 1614 1716 1733 1531 1293 1083 1209 1179 807 484 313 352 386 334 386 165 112 29 0 0 2 6 19 51 32 26 20 22 18
1040 1412 1315 1522 2045 2027 1906 1835 1827 1735 1498 1609 1651 1678 1814 1846 1733 1408 1152 1155 1229 1196 597 353 251 236 51 35 46 44 42 17 0 0 6 14 8 22 16 9 7 8 8
993 1187 1097 1363 1905 1958 1718 1898 1586 1576 1478 1574 1633 1643 1632 1740 1574 1232 1006 1032 1077 954 661 283 158 26 0 17 17 8 16 0 0 0 0 5 15 19 13 16 12 11 9
1538 1214 1088 1026 1454 1512 1595 1436 1103 839 1007 1076 1159 1273 934 1361 1178 1021 852 848 806 503 274 187 52 23 14 2 0 0 0 0 0 0 0 0 25 19 28 21 20 16 17
1090 1052 1184 951 611 363 351 208 68 88 4 158 587 479 761 898 866 867 730 592 520 321 161 72 24 3 0 0 0 0 0 0 0 0 1 0 25 23 20 14 13 13 11
989 887 856 610 161 33 10 10 39 117 168 0 28 330 509 679 636 657 557 490 329 183 68 54 3 0 0 0 0 0 0 0 0 0 0 10 27 20 18 14 14 15 14
780 711 560 556 210 54 13 3 38 100 140 25 9 3 335 421 339 312 253 285 181 63 53 38 0 0 0 0 0 0 0 0 0 0 0 34 23 20 18 14 14 10 10
626 605 517 302 50 26 35 7 0 0 22 2 0 20 147 240 99 154 158 139 75 31 15 0 0 0 0 0 0 0 0 0 0 0 1 31 22 18 14 13 9 8 6
412 574 383 121 17 0 2 0 1 1 0 0 0 0 191 132 73 58 25 18 1 3 0 0 0 0 0 0 0 0 0 0 0 0 5 27 22 16 14 11 8 8 7
200 274 162 65 37 0 7 0 0 0 1 0 0 0 190 97 46 4 1 0 0 0 0 0 0 0 0 0 0 0 0 0 0 0 2 19 25 18 15 15 7 8 6
104 74 30 3 14 0 0 0 0 0 3 2 22 57 111 75 8 0 0 0 0 0 0 0 0 0 0 0 0 0 0 0 0 0 0 15 23 27 12 13 7 5 3
6 8 0 4 1 0 0 0 1 1 0 40 36 46 40 60 0 0 0 0 0 0 0 0 0 0 0 0 0 0 0 0 0 0 0 3 14 24 18 8 6 4 3
7 0 0 0 0 0 4 0 0 1 8 13 13 4 28 35 0 0 0 0 0 0 0 0 0 0 0 0 0 0 0 0 0 0 0 0 0 6 12 15 10 6 4
0 0 0 0 0 0 0 0 1 0 1 3 8 0 0 25 7 0 0 0 0 0 0 0 0 0 0 0 0 0 0 0 0 0 0 0 0 0 0 5 10 10 6
0 0 0 0 1 0 0 0 0 0 0 0 0 0 0 0 20 14 2 0 0 0 0 0 0 0 0 0 0 0 0 0 0 0 0 0 0 0 0 0 2 1 14
0 0 0 5 4 0 1 3 2 7 0 0 0 0 0 0 0 8 41 29 44 7 0 0 0 0 0 0 0 0 0 0 0 0 0 0 0 0 0 0 0 0 0
0 0 1 4 0 2 2 3 3 0 2 1 0 0 0 0 0 9 19 26 12 58 5 0 3 1 0 0 0 0 0 0 0 0 0 0 0 0 0 0 0 0 0
0 0 0 0 0 0 0 1 0 2 8 3 1 0 0 0 0 0 16 25 1 27 25 0 0 0 0 0 0 0 0 0 0 0 0 0 0 0 0 0 0 0 0
0 0 0 0 0 0 0 0 1 0 1 0 0 0 0 0 0 0 5 4 0 1 0 0 0 0 0 0 0 0 0 0 0 0 0 0 0 0 0 0 0 0 0
0 0 0 0 0 0 0 2 1 1 0 0 0 0 0 0 0 0 0 0 0 15 12 20 17 1 1 0 0 1 6 9 0 0 0 0 0 0 0 0 0 0 0
0 0 0 0 0 0 2 0 1 0 0 0 0 0 0 0 0 0 1 0 2 20 38 55 66 47 25 0 0 5 0 2 8 0 0 0 0 0 0 0 0 0 0
0 0 0 0 1 0 0 1 0 0 0 0 0 0 0 0 0 0 0 31 44 26 70 58 61 57 52 44 9 19 9 4 0 8 1 0 0 0 0 0 0 0 0

GFSSE_con_sbcape_072.txt.gz
CAPE
1171 1375 1485 1553 1580 1534 1477 1362 1273 1459 1521 1516 1513 1468 1450 1408 1296 1160 1101 1064 1086 1311 1051 873 1151 1075 1049 797 928 1020 936 848 797 777 677 578 476 342 352 495 417 188 657
1340 1549 1489 1609 1701 1688 1653 1500 1398 1608 1669 1632 1565 1506 1407 1317 1216 1089 1040 1071 1200 1366 888 914 1177 882 782 747 903 811 774 659 578 640 634 418 328 330 244 244 391 309 478
1489 1695 1557 1591 1739 1768 1788 1687 1581 1818 1822 1700 1599 1475 1421 1307 1246 1067 941 1040 1274 1327 899 641 726 728 596 728 691 673 592 510 380 360 241 21 54 189 185 161 327 177 192
1341 1681 1704 1608 1728 1831 1816 1770 1629 1851 1828 1761 1595 1474 1448 1382 1255 1404 1273 1122 1248 1299 821 630 814 669 766 660 464 395 310 227 114 111 1 18 62 165 117 92 74 49 34
1130 1511 1836 1620 1688 1862 1831 1792 1630 1764 1820 1734 1558 1567 1561 1462 1686 1732 1491 1392 1291 975 771 524 683 660 677 479 257 167 64 18 6 0 8 25 29 65 57 38 25 13 13
1103 1210 1610 1704 1715 1860 1866 1863 1699 1680 1623 1576 1527 1643 1776 1836 1868 1667 1395 1352 1363 1213 1026 816 760 762 461 299 179 45 0 0 0 4 12 19 13 42 26 18 19 22 19
887 1145 1210 1643 1747 1876 1976 1918 1696 1574 1556 1544 1554 1601 1770 1872 1802 1440 1306 1229 1164 1058 958 869 706 358 170 40 6 2 0 0 0 0 2 7 12 28 11 13 9 6 11
918 839 962 1411 1767 1921 1820 1498 1326 1375 1406 1325 1436 1605 1676 1574 1418 1383 1256 1010 965 790 670 614 207 91 19 0 6 0 0 0 0 0 1 7 26 16 17 19 7 15 14
989 880 790 867 692 605 1356 1043 821 790 288 353 311 643 343 677 767 1098 1149 1046 729 577 507 278 94 21 11 0 0 0 0 0 0 0 0 6 15 11 24 17 21 15 15
588 543 699 445 87 21 59 200 209 465 174 139 155 9 71 280 502 799 871 727 534 412 304 181 53 18 3 0 0 0 0 0 0 0 0 10 18 14 26 24 18 17 15
483 294 360 243 71 0 0 64 169 253 205 205 97 5 29 145 319 508 368 410 354 185 120 77 19 6 0 0 0 0 0 0 0 0 0 29 15 24 28 23 20 20 16
408 259 220 122 31 1 0 7 2 56 36 3 0 1 0 0 208 227 260 225 172 88 64 37 1 0 0 0 0 0 0 0 0 0 0 26 17 25 21 20 21 14 14
303 275 206 21 0 0 0 0 0 0 0 0 0 0 0 0 116 164 113 43 41 65 22 0 0 0 0 0 0 0 0 0 0 0 6 24 31 16 19 19 15 14 10
333 271 158 4 0 0 0 1 1 0 0 0 0 0 4 26 103 54 22 0 4 0 0 0 0 0 0 0 0 0 0 0 0 0 5 25 28 17 18 14 11 11 7
160 91 131 0 0 0 1 1 0 1 1 0 0 0 36 69 25 1 1 0 0 0 0 0 0 0 0 0 0 0 0 0 0 0 0 14 21 16 10 11 8 9 8
6 12 0 3 0 0 0 0 1 0 2 1 1 0 7 22 0 0 0 0 0 0 0 0 0 0 0 0 0 0 0 0 0 0 0 0 10 16 19 9 8 6 6
0 0 0 1 0 0 0 0 1 0 12 8 0 0 46 1 0 0 0 0 0 0 0 0 0 0 0 0 0 0 0 0 0 0 0 0 0 4 8 18 14 7 4
0 0 0 0 0 0 0 1 1 6 4 8 6 30 3 0 0 0 0 0 0 0 0 0 0 0 0 0 0 0 0 0 0 0 0 0 0 0 0 10 15 10 4
0 0 0 0 0 0 1 1 0 0 8 4 3 7 4 0 0 0 0 0 0 0 0 0 0 0 0 0 0 0 0 0 0 0 0 0 0 0 0 0 0 3 5
0 0 0 0 0 0 0 1 2 0 0 0 3 12 24 4 0 0 0 0 0 0 0 0 0 0 0 0 0 0 0 0 0 0 0 0 0 0 0 0 0 0 0
0 0 0 0 0 0 2 1 3 2 1 1 0 0 0 1 0 0 0 0 0 0 0 0 0 0 0 0 0 0 0 0 0 0 0 0 0 0 0 0 0 0 0
0 0 0 0 0 1 0 2 0 0 1 0 0 0 0 0 0 0 0 5 14 0 0 0 0 0 0 0 0 0 0 0 0 0 0 0 0 0 0 0 0 0 0
0 0 1 0 1 0 0 0 0 0 1 1 1 1 1 0 0 10 1 14 21 33 5 0 0 0 0 0 0 0 0 0 0 0 0 0 0 0 0 0 0 0 0
0 0 0 0 0 0 0 0 0 2 3 1 0 0 0 0 0 0 9 6 7 41 17 0 0 0 0 0 0 0 0 0 0 0 0 0 0 0 0 0 0 0 0
0 1 0 0 0 0 0 0 0 2 0 2 0 0 0 0 0 0 0 1 0 18 1 0 11 0 0 0 0 0 0 0 0 0 0 0 0 0 0 0 0 0 0
0 0 0 0 0 0 0 0 0 0 0 1 0 0 0 0 0 0 0 0 0 1 1 0 0 0 0 0 0 0 0 0 0 0 0 0 0 0 0 0 0 0 0

GFSSE_con_sbcape_075.txt.gz
CAPE
1040 1158 1374 1534 1522 1430 1246 1356 1356 1436 1553 1677 1746 1726 1631 1554 1466 1350 1214 1298 1354 1353 1171 1075 1473 1363 957 948 813 836 988 818 858 750 777 747 529 470 526 612 572 336 775
1039 1215 1348 1572 1625 1482 1387 1454 1505 1559 1722 1754 1757 1728 1656 1580 1494 1362 1355 1480 1520 1445 1012 1040 1510 1258 1016 938 1068 1028 923 792 713 735 683 569 574 488 395 446 622 433 643
1288 1318 1324 1503 1715 1721 1575 1569 1713 1773 1793 1852 1753 1690 1643 1553 1478 1415 1401 1499 1508 1486 1173 1009 1140 1059 881 1004 935 870 787 650 598 564 364 51 110 382 427 358 560 537 408
1385 1331 1343 1540 1699 1830 1743 1646 1833 1917 1897 1852 1786 1670 1618 1515 1446 1427 1391 1427 1426 1495 1338 1202 1143 974 895 893 735 674 601 464 335 223 17 32 84 274 288 209 237 189 266
1476 1398 1345 1556 1653 1820 1843 1716 1865 1864 1846 1760 1720 1712 1646 1557 1419 1429 1446 1413 1456 1439 1364 1175 1105 838 808 545 449 396 270 134 58 4 0 0 37 142 143 91 38 22 27
1174 1521 1452 1433 1595 1847 1908 1771 1854 1847 1666 1593 1619 1711 1686 1596 1685 1552 1389 1457 1414 1108 1360 1287 1043 802 516 283 142 82 25 6 0 0 1 34 28 85 33 14 16 11 15
789 1182 1485 1305 1514 1843 1995 1891 1793 1794 1670 1530 1571 1549 1528 1803 1822 1632 1395 1302 1177 1232 1251 1133 804 626 392 135 37 0 0 0 0 0 1 6 21 37 23 16 14 8 12
767 796 1137 1479 1502 1768 1905 1764 1357 1581 1619 1554 1554 1545 1531 1704 1445 1548 1454 1249 1045 886 849 694 496 412 167 42 2 0 0 0 0 0 1 9 28 38 35 23 9 7 16
684 700 761 1311 1632 1653 1659 1580 1164 1057 989 917 665 341 380 637 794 1054 1053 918 912 853 641 413 305 42 86 11 0 0 0 0 0 0 5 13 22 25 22 20 10 6 7
512 476 470 410 299 439 742 1036 811 534 291 302 109 2 3 270 367 381 586 748 599 725 426 268 58 42 60 2 0 0 0 0 0 0 1 9 26 12 19 7 10 6 19
320 390 211 59 13 37 176 424 596 475 66 114 178 132 71 149 200 222 458 566 407 366 254 122 12 4 6 0 0 0 0 0 0 0 4 40 27 22 20 19 11 7 9
329 48 84 24 0 1 64 200 307 188 31 20 38 50 40 118 116 143 227 321 249 220 153 47 3 4 0 0 0 0 0 0 0 0 3 40 16 21 18 10 16 10 11
64 22 0 38 0 0 1 1 10 86 28 4 21 2 0 1 93 236 120 136 105 135 4 0 0 0 0 0 0 0 0 0 0 0 7 13 29 16 15 13 11 10 11
159 60 28 1 1 0 0 1 1 0 1 0 0 1 0 0 1 99 95 22 17 12 0 0 0 0 0 0 0 0 0 0 0 0 1 12 21 13 22 17 18 15 11
234 52 60 8 0 0 1 1 1 0 0 0 1 0 0 0 55 140 31 0 1 0 0 0 0 0 0 0 0 0 0 0 0 0 0 24 25 23 22 23 18 15 14
70 5 29 55 2 0 1 0 1 0 1 1 0 2 0 13 133 95 15 0 0 0 0 0 0 0 0 0 0 0 0 0 0 0 0 2 14 26 22 19 16 13 9
11 0 0 26 0 0 0 1 1 1 1 1 1 0 4 25 115 41 12 0 0 0 0 0 0 0 0 0 0 0 0 0 0 0 0 0 2 12 18 17 16 8 9
0 0 1 1 0 0 0 0 0 1 2 6 1 0 0 41 79 11 0 0 0 0 0 0 0 0 0 0 0 0 0 0 0 0 0 0 0 0 7 11 17 15 7
0 0 0 0 0 0 0 0 2 5 10 18 13 5 5 20 0 0 0 0 0 0 0 0 0 0 0 0 0 0 0 0 0 0 0 0 0 0 0 5 9 10 10
0 0 0 0 0 1 1 0 0 2 2 16 4 2 1 0 0 0 0 0 0 0 0 0 0 0 0 0 0 0 0 0 0 0 0 0 0 0 0 0 0 0 1
0 0 0 0 0 0 1 2 1 0 1 1 1 8 3 0 0 0 0 0 0 0 0 0 0 0 0 0 0 0 0 0 0 0 0 0 0 0 0 0 0 0 0
0 0 0 0 0 0 0 0 0 0 3 0 1 0 22 4 0 0 0 0 0 0 0 0 0 0 0 0 0 0 0 0 0 0 0 0 0 0 0 0 0 0 0
0 0 0 0 0 0 0 0 0 0 2 1 1 3 0 4 1 0 0 0 0 0 0 0 0 0 0 0 0 0 0 0 0 0 0 0 0 0 0 0 0 0 0
0 0 0 0 0 0 0 0 0 0 1 2 1 1 1 0 1 0 0 10 18 1 5 2 0 0 0 0 0 0 0 0 1 0 0 0 0 0 1 1 0 0 0
0 0 0 0 1 0 0 0 0 0 0 0 1 1 1 1 0 0 0 0 1 15 19 22 0 0 0 5 0 0 0 0 0 0 0 0 0 0 5 0 0 0 0
6 0 0 0 0 0 0 0 0 0 0 0 1 1 0 1 1 0 0 0 0 0 0 11 7 5 0 0 0 0 0 0 1 1 0 0 0 0 0 0 0 0 0

GFSSE_con_sbcape_078.txt.gz
CAPE
1011 897 1305 1410 1170 1362 1356 1429 1544 1716 1906 1810 1777 1789 1839 1826 1760 1601 1412 1346 1395 1546 1689 1522 1465 1503 1143 1065 1205 1246 1052 908 794 891 879 998 720 653 712 762 705 464 853
866 1068 1290 1507 1508 1482 1508 1455 1667 1875 2090 2121 2005 1971 1903 1853 1717 1547 1560 1474 1540 1715 1806 1830 1688 1364 1206 971 1157 1045 998 769 736 787 820 805 710 682 643 638 699 544 808
1010 1142 1298 1503 1617 1602 1656 1610 1825 2022 2175 2188 2090 2025 1957 1884 1701 1642 1718 1617 1657 1715 1605 1573 1279 1114 1080 1071 1062 1022 921 804 653 677 643 283 353 551 583 549 674 660 671
1126 1070 1254 1518 1641 1643 1664 1750 1759 2125 2205 2230 2161 2066 1982 1886 1740 1573 1545 1682 1641 1620 1686 1326 1348 1182 1052 1068 934 862 769 636 450 283 97 187 239 508 468 398 469 477 526
1292 1139 1211 1524 1603 1720 1681 1784 1806 1926 2053 2063 2033 2089 2033 1937 1848 1851 1523 1662 1714 1726 1697 1498 1372 1208 1063 808 693 626 462 294 163 13 4 21 95 395 389 217 202 294 369
1378 1265 1218 1459 1593 1783 1745 1838 1837 1827 1777 1855 1892 1999 2045 1974 1935 1903 1655 1668 1665 1695 1717 1523 1388 1094 745 589 479 306 122 54 0 0 14 117 15 117 54 23 20 16 70
1156 1229 1217 1401 1593 1812 1847 1918 1872 1767 1655 1695 1824 1862 1891 1886 1849 1758 1592 1576 1627 1621 1605 1287 1137 788 492 342 214 75 15 0 0 0 0 1 24 39 29 22 21 16 13
923 1057 1120 1383 1541 1763 1806 1720 1596 1593 1630 1617 1712 1707 1470 1211 1082 1180 1431 1473 1350 1479 1189 1067 808 498 326 166 58 8 0 0 0 0 0 12 70 36 35 30 16 18 11
652 744 1040 1189 1453 1682 1697 1583 1234 1176 1281 1378 1088 630 445 275 546 760 1005 1309 1221 1037 981 787 531 294 174 59 8 0 0 0 0 0 0 9 45 39 22 7 9 12 6
488 516 617 1086 1352 1425 1507 1454 693 736 659 163 85 83 6 3 114 318 539 687 775 841 776 555 307 218 90 8 0 0 0 0 0 0 0 13 38 21 16 7 13 18 14
426 395 274 361 505 566 681 848 669 482 283 155 91 34 22 5 144 142 301 316 600 369 492 170 152 133 22 0 0 0 0 0 0 0 0 31 24 19 23 19 16 9 12
473 243 215 34 1 1 186 428 412 364 130 32 1 0 0 11 19 64 96 218 220 190 152 67 120 29 1 0 0 0 0 0 0 0 0 26 36 24 22 21 9 15 29
348 41 56 74 0 0 36 102 242 78 4 5 4 0 0 11 49 84 74 118 119 93 0 0 0 0 0 0 0 0 0 0 0 0 3 13 33 19 12 23 13 9 9
155 17 12 34 33 0 1 9 3 43 3 12 20 10 4 42 72 55 84 60 62 12 0 0 0 0 0 0 0 0 0 0 0 0 2 25 34 21 36 27 17 18 13
144 5 7 1 26 0 0 1 1 3 1 1 1 0 0 7 44 92 77 23 28 0 0 0 0 0 0 0 0 0 0 0 0 0 1 14 27 38 24 24 19 15 13
66 21 32 3 0 0 0 0 0 1 1 1 0 1 0 0 0 48 49 19 0 0 0 0 0 0 0 0 0 0 0 0 0 0 0 7 16 27 30 16 22 14 12
87 17 96 47 0 0 0 1 0 0 0 0 0 1 0 0 1 86 59 15 0 0 0 0 0 0 0 0 0 0 0 0 0 0 0 0 6 13 22 35 25 16 10
20 12 31 15 0 1 1 1 2 1 1 1 1 1 1 1 101 154 75 12 0 0 0 0 0 0 0 0 0 0 0 0 0 0 0 0 0 0 6 22 30 28 10
3 0 0 0 0 1 1 0 0 1 3 6 1 2 1 1 7 92 20 0 0 0 0 0 0 0 0 0 0 0 0 0 0 0 0 0 0 0 0 5 11 13 15
0 0 0 1 0 0 0 0 2 5 9 7 16 1 3 1 24 9 1 0 0 0 0 0 0 0 0 0 0 0 0 0 0 0 0 0 0 0 0 0 1 1 3
0 0 0 1 1 0 0 1 4 2 2 9 19 16 3 8 27 0 0 0 0 0 0 0 0 0 0 0 0 0 0 0 0 0 0 0 0 0 0 0 0 0 0
8 1 0 0 0 0 0 0 0 1 0 2 1 4 2 1 0 1 0 0 0 0 0 0 0 0 0 0 0 0 0 0 0 0 0 0 0 0 0 0 0 0 0
4 6 0 0 0 0 0 0 0 0 1 1 1 9 3 2 1 0 0 0 0 0 0 0 0 0 0 0 0 0 0 0 0 0 0 0 0 0 0 0 0 0 0
2 6 0 0 0 0 0 0 0 0 1 0 0 1 3 1 1 0 0 0 0 0 0 0 0 0 0 0 0 0 0 0 2 0 0 0 0 0 0 0 3 3 1
0 0 0 0 0 0 0 0 0 0 0 0 1 1 1 0 0 0 0 0 0 0 0 6 0 0 0 0 0 0 0 0 0 0 0 0 0 0 0 0 0 6 3
1 0 0 0 0 0 0 0 0 0 0 0 0 3 1 0 2 0 0 0 0 3 15 23 5 0 0 0 1 4 4 0 0 0 0 0 0 0 0 0 2 9 15

GFSSE_con_sbcape_081.txt.gz
CAPE
1088 1218 1189 1037 1151 1455 1538 1573 1692 1790 1828 1842 1910 1957 1986 1982 1933 1848 1811 1716 1718 1710 1687 1327 1573 1426 1066 1043 1337 1331 1188 1038 963 1050 1071 1096 903 955 836 892 861 625 895
1322 1369 1122 992 1145 1588 1633 1662 1806 1906 1971 2038 2048 2083 2068 2075 1997 1864 1709 1718 1724 1862 1591 1566 1763 1749 1343 1293 1331 1187 1046 919 887 925 920 1044 881 733 738 848 815 606 857
1562 1463 1415 1098 1252 1622 1685 1787 2007 2250 2196 2195 2181 2172 2162 2117 1959 1777 1752 1783 1798 1979 1800 1653 1789 1450 1239 1275 1148 1058 1003 941 796 786 813 710 706 751 695 816 795 881 748
1503 1506 1566 1252 1373 1659 1593 1834 2035 2423 2445 2337 2316 2310 2224 2092 1913 1866 1851 1807 1885 2068 2053 1577 1547 1282 1290 1250 1042 984 887 764 643 652 564 657 563 752 723 641 680 615 621
1451 1313 1494 1476 1433 1537 1641 1712 1928 1848 2339 2293 2282 2349 2267 2076 2023 1950 1796 1856 1985 2125 2120 1709 1441 1523 1273 993 891 781 609 434 365 354 362 625 641 622 630 508 506 498 567
1602 1393 1420 1428 1250 1464 1734 1701 1880 1869 1803 2013 2189 2253 2248 2158 2035 1685 1473 1908 2027 2169 2124 1830 1506 1256 984 798 678 560 350 234 251 307 573 593 446 298 146 66 286 272 398
1764 1727 1782 1450 1420 1523 1590 1776 1760 1805 1633 1591 2125 2003 1738 2019 1630 1534 1302 1784 1947 1886 1833 1479 1342 1070 837 617 478 292 82 121 479 484 418 325 192 103 23 10 9 11 8
1481 1502 1419 1563 1583 1443 1480 1730 1595 1590 1647 1787 1957 1980 1866 1428 1200 1025 979 1073 1109 1392 1374 1276 1049 892 680 439 212 48 6 45 165 209 165 120 114 35 1 6 7 13 12
1900 1600 1081 1511 1812 1537 1398 1637 1561 1332 1411 1384 1574 1578 781 141 379 483 341 624 1025 1137 997 1007 799 624 508 231 72 4 0 16 94 61 29 39 96 17 12 17 21 14 21
1617 1882 1659 1492 1589 2157 2165 1411 1260 1178 899 770 623 257 142 62 71 132 292 438 610 1147 871 854 611 450 232 63 0 0 0 0 29 9 12 41 87 19 16 12 9 11 18
1339 1532 1655 1302 1628 1966 1792 1644 1071 893 469 395 454 91 77 142 89 96 213 267 301 573 508 446 399 186 64 4 0 0 0 0 0 0 10 32 37 22 17 24 21 17 18
855 870 1179 873 1178 1176 893 1152 1502 1210 886 181 193 103 107 104 161 68 75 144 214 266 238 248 183 37 38 67 1 0 0 0 0 0 3 26 27 27 30 29 19 15 16
1039 454 1030 835 622 752 829 751 578 579 474 25 7 11 54 83 74 14 78 165 201 191 285 294 144 150 132 74 2 0 0 0 0 2 6 41 44 34 32 17 16 14 20
1108 1090 746 669 566 581 642 273 283 204 215 20 2 9 65 107 115 182 248 194 92 32 142 320 224 93 22 1 0 0 0 0 0 0 15 28 41 20 12 27 28 25 20
1074 1068 599 508 582 510 381 194 200 232 108 75 7 2 99 79 208 210 218 223 47 3 46 204 80 16 0 0 0 0 0 0 0 2 10 17 36 44 35 37 42 31 16
931 946 504 411 453 439 345 177 105 119 132 23 13 12 8 51 237 261 252 259 122 0 18 126 58 1 0 0 0 0 0 0 0 0 7 24 26 48 51 41 35 25 15
824 803 377 386 562 246 83 139 32 3 2 3 5 13 2 11 59 158 225 206 156 1 0 24 6 0 0 0 0 0 0 0 0 0 14 21 18 22 42 46 25 10 10
802 774 461 500 350 156 55 5 3 3 1 2 2 2 3 9 61 184 171 141 52 1 0 3 0 0 1 0 0 1 0 0 0 12 6 12 19 5 13 20 29 26 20
797 659 462 420 266 10 6 5 3 6 6 2 4 4 2 2 22 98 120 106 29 0 0 0 0 1 4 5 0 0 0 1 5 9 6 8 16 19 29 14 16 19 21
674 606 281 223 165 4 4 4 3 9 14 13 7 2 3 8 8 93 32 1 1 1 1 0 0 4 17 12 0 0 4 4 9 11 14 4 9 15 21 23 19 15 13
500 382 94 109 1 2 2 4 7 7 17 23 24 26 9 6 24 4 2 0 0 0 0 0 0 0 4 16 3 6 11 6 5 3 11 10 3 9 9 8 9 11 6
382 263 41 43 4 2 2 2 2 11 17 21 28 31 44 2 12 21 0 0 1 0 5 0 0 0 0 1 2 5 8 6 6 5 4 16 13 3 6 2 1 1 1
396 217 30 7 4 2 4 11 3 9 16 15 8 5 2 1 6 2 0 0 0 2 1 0 0 0 0 2 0 18 9 33 7 10 6 11 10 7 1 0 1 3 8
471 281 15 1 3 2 13 8 3 4 14 14 15 11 7 4 2 1 0 0 0 0 0 0 0 0 0 0 2 0 53 27 82 32 1 2 2 4 6 0 2 6 8
359 167 1 1 3 4 5 2 5 9 12 8 3 4 7 4 6 3 2 0 0 0 0 0 0 0 0 18 11 11 3 5 52 76 59 2 2 0 0 16 20 22 13
217 17 3 2 2 1 4 3 2 26 11 3 7 2 1 3 4 3 1 0 0 0 0 0 0 0 0 12 9 23 28 40 21 61 60 80 79 39 17 36 25 14 12